     2              OBSERVATION DATA    GPS                 RINEX VERSION / TYPE
teqc 1997Sep10 19971030 21:26:59UTC                         PGM / RUN BY / DATE
                                                            COMMENT
Original Marker Name: 65954.EXTR                            COMMENT
Campaign Name: NGS Imperial Valley 1990                     COMMENT
4-Character Station Name: EXTR                              COMMENT
6-Character Antenna Code: TI4100                            COMMENT
Vertical Measurement Point: PAE                             COMMENT
Vertical Offset to Rinex Ref. Point: 0.0000                 COMMENT
Radial Measurement Point: RRP                               COMMENT
Radial Offset to Rinex Ref. Point: 0.0000                   COMMENT
Antenna Height from Field Measurement: 1.0570 m             COMMENT
Original XYZ: -4779751.9155 -9178689.7328 6767293.7400      COMMENT
New XYZ position is based on association with SCEC monument COMMENT
E1D0I0M4+0011. Position of that monument is believed to be  COMMENT
valid to within 1 m horizontally; vertical accuracy         COMMENT
should be no worse than 3-times this value.                 COMMENT
                                                            COMMENT
Revised Rinex header created by UCSD GPS archive for        COMMENT
GSAC on 02-Jun-1999 (1999:153) 01:54:10 GMT                 COMMENT
For assistance contact dagnew@ucsd.edu or hjohnson@ucsd.edu COMMENT
                                                            COMMENT
EXTRA 1942                                                  MARKER NAME
05 NATIONAL GEODETIC SURVEY                                 OBSERVER / AGENCY
111 TI 4100 1.9                                             REC # / TYPE / VERS
4053 TI 4100                                                ANT # / TYPE
 -2330877.0000 -4808426.0000  3470572.0000                  APPROX POSITION XYZ
        1.0570        0.0000        0.0000                  ANTENNA: DELTA H/E/N
     1     1     0                                          WAVELENGTH FACT L1/2
     4    P1    P2    L1    L2                              # / TYPES OF OBSERV
    15                                                      INTERVAL
  1990     2    23     8    59   59.000000                  TIME OF FIRST OBS
  1990     2    23    10    36   59.000000                  TIME OF LAST OBS
     0                                                      # OF SATELLITES
                                                            END OF HEADER
 90  2 23  8 59 59.0800000  0  4G 3G12G14G13
  21755208.535    21755212.161    28643589.117 8 -53164042.834 8
  22053669.239    22053674.047    58126226.563 9 -74303685.722 8
  23761630.631    23761631.705    19954107.265 7 -23099456.742 7
  21814378.210    21814381.819    82214582.358 9-123726466.776 8
 90  2 23  9  0 14.0800000  0  4G 3G12G14G13
  21752918.034    21752921.394    28631549.472 8 -53173424.383 8
  22061914.959    22061918.519    58169557.344 9 -74269921.491 8
  23765102.991    23765108.389    19972374.628 7 -23085222.454 8
  21818063.453    21818068.264    82233947.385 8-123711377.154 7
 90  2 23  9  0 29.0800000  0  4G 3G12G14G13
  21750633.056    21750634.831    28619539.241 8 -53182782.985 7
  22070177.134    22070181.507    58212979.213 9 -74236086.295 7
  23768607.765    23768610.364    19990771.250 7 -23070887.434 8
  21821751.025    21821755.287    82253326.130 8-123696276.831 8
 90  2 23  9  0 44.0800000  0  4G 3G12G14G13
  21748351.366    21748356.460    28607558.708 8 -53192118.478 7
  22078457.407    22078462.360    58256491.715 8 -74202180.457 7
  23772128.444    23772132.877    20009297.056 8 -23056451.754 8
  21825440.619    21825445.069    82272718.714 9-123681165.738 8
 90  2 23  9  0 59.0800000  0  4G 3G12G14G13
  21746079.222    21746082.549    28595607.641 9 -53201430.981 7
  22086755.670    22086760.045    58300094.387 9 -74168204.359 7
  23775682.612    23775686.141    20027952.096 9 -23041915.368 8
  21829134.163    21829138.086    82292124.999 8-123666043.958 7
 90  2 23  9  1 14.0800000  0  4G 3G12G14G13
  21743810.696    21743812.814    28583685.826 7 -53210720.716 6
  22095068.845    22095073.584    58343786.704 9 -74134158.426 7
  23779254.151    23779256.726    20046736.004 7 -23027278.573 7
  21832828.680    21832832.352    82311544.970 9-123650911.530 7
 90  2 23  9  1 29.0800000  0  4G 3G12G14G13
  21741547.285    21741550.611    28571793.320 8 -53219987.588 7
  22103400.220    22103404.800    58387568.357 9 -74100042.872 8
  23782855.695    23782859.035    20065648.768 8 -23012541.323 8
  21836528.752    21836532.329    82330978.663 8-123635768.381 8
 90  2 23  9  1 44.0800000  0  4G 3G12G14G13
  21739288.637    21739292.314    28559930.147 8 -53229231.628 9
  22111748.688    22111751.634    58431439.051 9 -74065857.923 7
  23786478.192    23786482.280    20084690.596 8 -22997703.591 8
  21840229.078    21840232.760    82350426.183 8-123620614.483 8
 90  2 23  9  1 59.0800000  0  4G 3G12G14G13
  21737036.176    21737040.202    28548096.166 8 -53238452.898 8
  22120114.281    22120118.075    58475398.334 9 -74031603.962 7
  23790125.725    23790130.162    20103861.245 8 -22982765.392 8
  21843930.154    21843937.026    82369887.263 8-123605450.023 8
 90  2 23  9  2 14.0800000  0  4G 3G12G14G13
  21734790.770    21734793.803    28536291.324 8 -53247651.476 8
  22128496.141    22128500.264    58519445.859 9 -73997281.229 7
  23793800.343    23793802.484    20123160.463 8 -22967727.061 8
  21847637.975    21847641.388    82389361.910 8-123590274.986 7
 90  2 23  9  2 29.0800000  0  4G 3G12G14G13
  21732549.235    21732553.458    28524515.565 8 -53256827.395 7
  22136895.474    22136898.952    58563581.269 9 -73962890.018 7
  23797494.175    23797497.412    20142588.399 7 -22952588.394 8
  21851346.836    21851350.962    82408850.218 9-123575089.299 7
 90  2 23  9  2 44.0800000  0  4G 3G12G14G13
  21730314.747    21730317.782    28512768.929 8 -53265980.611 8
  22145310.644    22145314.309    58607803.995 9 -73928430.749 7
  23801217.305    23801221.570    20162144.481 7 -22937349.910 9
  21855057.065    21855061.135    82428352.062 8-123559893.061 7
 90  2 23  9  2 59.0800000  0  4G 3G12G14G13
  21728084.571    21728088.753    28501051.465 8 -53275111.106 7
  22153742.316    22153745.690    58652113.644 9 -73893903.762 7
  23804962.177    23804965.086    20181829.008 7 -22922011.322 8
  21858771.870    21858777.002    82447867.536 9-123544686.217 8
 90  2 23  9  3 14.0800000  0  4G 3G12G14G13
  21725860.540    21725863.456    28489362.958 8 -53284219.034 6
  22162190.235    22162193.899    58696509.934 9 -73859309.282 8
  23808733.901    23808738.051    20201641.502 9 -22906573.020 8
  21862488.631    21862490.880    82467396.503 8-123529468.825 7
 90  2 23  9  3 29.0800000  0  4G 3G12G14G13
  21723642.090    21723644.794    28477703.206 9 -53293304.547 8
  22170655.468    22170659.978    58740992.331 8 -73824647.686 7
  23812526.305    23812531.818    20221581.848 8 -22891035.109 7
  21866207.561    21866210.772    82486939.066 8-123514240.857 7
 90  2 23  9  3 44.0800000  0  4G 3G12G14G13
  21721429.381    21721431.811    28466072.450 8 -53302367.469 7
  22179135.638    22179140.873    58785560.379 7 -73789919.339 8
  23816348.565    23816349.873    20241650.236 8 -22875397.369 8
  21869927.752    21869931.571    82506495.154 8-123499002.353 7
 90  2 23  9  3 59.0800000  0  4G 3G12G14G13
  21719220.233    21719223.612    28454470.465 9 -53311407.968 7
  22187634.317    22187637.673    58830213.709 9 -73755124.553 7
  23820188.134    23820194.582    20261846.512 8 -22859660.053 8
  21873651.716    21873656.072    82526064.718 9-123483753.352 8
 90  2 23  9  4 14.0800000  0  4G 3G12G14G13
  21717018.709    21717022.416    28442897.113 8 -53320426.189 7
  22196146.818    22196151.366    58874951.902 9 -73720263.654 8
  23824058.403    23824059.557    20282170.184 8 -22843823.397 8
  21877377.490    21877382.441    82545647.612 8-123468493.976 8
 90  2 23  9  4 29.0800000  0  4G 3G12G14G13
  21714822.156    21714825.290    28431352.416 9 -53329422.041 7
  22204676.003    22204680.188    58919774.447 9 -73685337.026 7
  23827947.847    23827953.603    20302621.247 8 -22827887.547 8
  21881107.177    21881112.432    82565243.846 8-123453224.192 7
 90  2 23  9  4 44.0800000  0  4G 3G12G14G13
  21712629.949    21712631.690    28419836.433 9 -53338395.540 6
  22213221.968    22213226.283    58964681.118 9 -73650344.826 8
  23831864.942    23831867.914    20323199.696 8 -22811852.392 8
  21884838.327    21884842.350    82584853.506 8-123437943.943 8
 90  2 23  9  4 59.0800000  0  4G 3G12G14G13
  21710445.546    21710447.997    28408349.019 9 -53347346.764 7
  22221782.625    22221788.170    59009671.470 9 -73615287.433 8
  23835804.818    23835808.018    20343905.305 7 -22795718.152 8
  21888573.054    21888576.768    82604476.377 8-123422653.401 7
 90  2 23  9  5 14.0800000  0  4G 3G12G14G13
  21708264.409    21708266.434    28396890.150 8 -53356275.768 8
  22230359.451    22230364.122    59054745.040 9 -73580165.187 8
  23839769.483    23839772.463    20364738.002 8 -22779484.885 8
  21892309.559    21892312.536    82624112.771 9-123407352.307 7
 90  2 23  9  5 29.0800000  0  4G 3G12G14G13
  21706088.572    21706091.731    28385459.886 8 -53365182.465 8
  22238952.892    22238957.508    59099901.415 8 -73544978.433 8
  23843756.734    23843760.500    20385697.798 7 -22763152.577 8
  21896049.290    21896051.976    82643762.656 8-123392040.717 8
 90  2 23  9  5 44.0800000  0  4G 3G12G14G13
  21703918.062    21703922.050    28374057.988 8 -53374067.057 8
  22247560.635    22247566.318    59145140.204 8 -73509727.455 8
  23847768.818    23847776.311    20406784.496 7 -22746721.420 8
  21899790.118    21899794.685    82663425.746 8-123376718.841 8
 90  2 23  9  5 59.0800000  0  4G 3G12G14G13
  21701755.383    21701758.573    28362684.592 8 -53382929.447 8
  22256185.836    22256190.235    59190460.891 9 -73474412.644 8
  23851807.795    23851810.038    20427997.821 8 -22730191.561 8
  21903534.603    21903538.970    82683102.418 8-123361386.377 7
 90  2 23  9  6 14.0800000  0  4G 3G12G14G13
  21699595.700    21699598.862    28351339.592 8 -53391769.706 7
  22264826.794    22264829.934    59235863.140 8 -73439034.284 8
  23855867.562    23855873.098    20449337.649 8 -22713563.113 8
  21907281.435    21907286.461    82702792.342 7-123346043.589 8
 90  2 23  9  6 29.0800000  0  4G 3G12G14G13
  21697442.668    21697445.962    28340022.924 7 -53400587.883 8
  22273480.909    22273486.299    59281346.561 9 -73403592.677 7
  23859952.539    23859956.850    20470804.077 8 -22696836.067 8
  21911031.758    21911035.845    82722495.462 9-123330690.520 8
 90  2 23  9  6 44.0800000  0  4G 3G12G14G13
  21695294.118    21695298.660    28328734.317 8 -53409384.206 7
  22282151.640    22282157.236    59326910.757 9 -73368088.132 7
  23864062.408    23864065.969    20492396.695 8 -22680010.617 8
  21914782.517    21914786.895    82742211.697 9-123315327.219 8
 90  2 23  9  6 59.0800000  0  4G 3G12G14G13
  21693152.391    21693154.316    28317473.968 8 -53418158.498 7
  22290837.721    22290842.588    59372555.268 9 -73332521.001 7
  23868195.452    23868200.332    20514115.407 7 -22663086.980 8
  21918538.446    21918541.711    82761941.329 9-123299953.500 8
 90  2 23  9  7 14.0800000  0  4G 3G12G14G13
  21691013.221    21691017.284    28306241.839 9 -53426910.810 7
  22299538.568    22299543.428    59418279.642 8 -73296891.626 8
  23872349.313    23872353.463    20535960.023 7 -22646065.188 7
  21922293.896    21922297.750    82781684.145 9-123284569.475 8
 90  2 23  9  7 29.0800000  0  4G 3G12G14G13
  21688882.621    21688886.310    28295037.874 8 -53435641.171 7
  22308254.681    22308259.620    59464083.443 9 -73261200.366 8
  23876533.292    23876537.245    20557930.547 7 -22628945.313 8
  21926053.492    21926057.460    82801440.029 9-123269175.300 7
 90  2 23  9  7 44.0800000  0  4G 3G12G14G13
  21686754.789    21686758.256    28283861.985 8 -53444349.653 7
  22316986.778    22316989.528    59509966.325 9 -73225447.488 8
  23880734.716    23880740.235    20580026.775 7 -22611727.482 8
  21929816.208    21929820.318    82821209.247 9-123253770.730 8
 90  2 23  9  7 59.0800000  0  4G 3G12G14G13
  21684634.663    21684637.232    28272714.209 8 -53453036.225 8
  22325733.227    22325736.596    59555927.820 9 -73189633.359 8
  23884965.136    23884969.931    20602248.675 7 -22594411.678 8
  21933580.872    21933585.194    82840991.757 9-123238355.790 8
 90  2 23  9  8 14.0800000  0  4G 3G12G14G13
  21682517.577    21682521.562    28261594.339 7 -53461701.065 8
  22334492.847    22334497.579    59601967.461 9 -73153758.333 8
  23889215.402    23889223.167    20624595.950 6 -22576998.245 8
  21937348.252    21937351.961    82860787.487 8-123222930.557 7
 90  2 23  9  8 29.0800000  0  4G 3G12G14G13
  21680407.056    21680412.419    28250502.530 8 -53470344.048 8
  22343269.285    22343273.479    59648084.872 8 -73117822.709 8
  23893494.164    23893498.204    20647068.464 7 -22559487.185 8
  21941117.547    21941121.973    82880596.477 9-123207494.982 8
 90  2 23  9  8 44.0800000  0  4G 3G12G14G13
  21678301.481    21678304.344    28239438.609 8 -53478965.252 7
  22352058.897    22352064.785    59694279.697 8 -73081826.773 8
  23897794.112    23897800.290    20669665.938 7 -22541878.800 9
  21944889.281    21944893.444    82900418.795 8-123192049.021 8
 90  2 23  9  8 59.0800000  0  4G 3G12G14G13
  21676202.094    21676204.858    28228402.555 9 -53487564.805 7
  22360864.136    22360869.328    59740551.577 9 -73045770.779 8
  23902122.120    23902121.689    20692388.314 7 -22524173.053 8
  21948663.903    21948668.630    82920254.156 9-123176592.902 7
 90  2 23  9  9 14.0800000  0  4G 3G12G14G13
  21674106.780    21674110.512    28217394.393 7 -53496142.593 7
  22369684.799    22369690.042    59786900.057 8 -73009655.108 7
  23906463.842    23906470.209    20715235.389 7 -22506370.158 8
  21952440.559    21952445.841    82940102.692 8-123161126.523 7
 90  2 23  9  9 29.0800000  0  4G 3G12G14G13
  21672018.000    21672020.364    28206413.903 9 -53504698.809 7
  22378519.151    22378524.209    59833324.623 9 -72973480.125 8
  23910839.113    23910843.816    20738206.921 8 -22488470.285 9
  21956220.673    21956224.297    82959964.305 9-123145649.934 8
 90  2 23  9  9 44.0800000  0  4G 3G12G14G13
  21669934.480    21669935.850    28195461.284 9 -53513233.315 7
  22387366.985    22387372.518    59879824.917 9 -72937246.156 8
  23915231.337    23915234.985    20761303.248 7 -22470473.128 7
  21960001.992    21960006.323    82979839.066 8-123130163.110 7
 90  2 23  9  9 59.0800000  0  4G 3G12G14G13
  21667854.893    21667856.917    28184536.337 8 -53521746.280 7
  22396230.804    22396236.425    59926400.433 9 -72900953.565 7
  23919651.962    23919656.767    20784523.902 7 -22452379.116 7
  21963786.542    21963792.442    82999727.008 8-123114666.048 7
 90  2 23  9 10 14.0800000  0  4G 3G12G14G13
  21665780.550    21665784.219    28173638.937 9 -53530237.747 7
  22405107.999    22405113.400    59973050.798 9 -72864602.661 8
  23924092.213    23924098.723    20807868.705 8 -22434188.395 8
  21967574.613    21967578.022    83019627.891 9-123099158.845 7
 90  2 23  9 10 29.0800000  0  4G 3G12G14G13
  21663711.949    21663714.885    28162769.290 9 -53538707.608 7
  22413998.547    22414004.455    60019775.513 8 -72828193.800 9
  23928559.273    23928563.680    20831337.406 7 -22415901.068 7
  21971363.438    21971366.828    83039541.904 8-123083641.446 7
 90  2 23  9 10 44.0800000  0  4G 3G12G14G13
  21661648.713    21661652.125    28151927.186 9 -53547155.996 8
  22422904.750    22422910.194    60066574.230 9 -72791727.292 8
  23933048.725    23933055.032    20854929.981 8 -22397517.283 9
  21975155.453    21975158.966    83059469.188 8-123068113.692 7
 90  2 23  9 10 59.0800000  0  4G 3G12G14G13
  21659591.579    21659594.059    28141112.795 9 -53555582.792 7
  22431822.975    22431829.807    60113446.764 9 -72755203.266 8
  23937562.982    23937563.979    20878646.180 7 -22379037.091 8
  21978950.366    21978954.062    83079409.622 8-123052575.697 7
 90  2 23  9 11 14.0800000  0  4G 3G12G14G13
  21657538.220    21657540.231    28130325.838 9 -53563988.216 6
  22440758.599    22440763.436    60160392.609 8 -72718622.095 8
  23942098.326    23942103.947    20902485.970 6 -22360460.672 9
  21982747.166    21982751.662    83099363.132 8-123037027.521 8
 90  2 23  9 11 29.0800000  0  4G 3G12G14G13
  21655491.048    21655493.596    28119566.330 9 -53572372.258 6
  22449705.173    22449710.089    60207411.261 8 -72681984.200 8
  23946659.729    23946662.598    20926449.002 7 -22341788.176 7
  21986546.203    21986550.327    83119329.669 9-123021469.180 7
 90  2 23  9 11 44.0800000  0  4G 3G12G14G13
  21653448.121    21653452.047    28108834.375 9 -53580734.830 7
  22458665.782    22458673.091    60254502.235 8 -72645289.951 9
  23951240.400    23951245.011    20950535.410 7 -22323019.541 8
  21990348.466    21990353.123    83139309.490 8-123005900.506 8
 90  2 23  9 11 59.0800000  0  4G 3G12G14G13
  21651411.882    21651413.750    28098129.832 9 -53589076.013 7
  22467641.622    22467646.958    60301665.124 9 -72608539.667 8
  23955849.704    23955855.300    20974744.729 8 -22304155.163 9
  21994152.337    21994157.215    83159302.432 9-122990321.588 8
 90  2 23  9 12 14.0800000  0  4G 3G12G14G13
  21649379.080    21649383.100    28087452.583 8 -53597395.982 6
  22476630.027    22476635.982    60348899.405 9 -72571733.748 8
  23960479.884    23960483.021    20999076.935 8 -22285195.017 8
  21997960.212    21997965.278    83179308.197 8-122974732.697 8
 90  2 23  9 12 29.0800000  0  4G 3G12G14G13
  21647352.504    21647355.750    28076802.804 9 -53605694.505 8
  22485631.655    22485637.113    60396204.900 9 -72534872.347 8
  23965134.859    23965137.461    21023531.964 8 -22266139.126 8
  22001769.117    22001774.139    83199327.082 9-122959133.566 7
 90  2 23  9 12 44.0800000  0  4G 3G12G14G13
  21645332.008    21645335.890    28066180.198 8 -53613971.868 6
  22494647.371    22494652.105    60443581.083 8 -72497955.850 8
  23969810.255    23969814.927    21048109.533 8 -22246987.836 8
  22005581.747    22005585.313    83219359.136 8-122943524.185 7
 90  2 23  9 12 59.0800000  0  4G 3G12G14G13
  21643315.897    21643318.440    28055584.975 8 -53622227.877 6
  22503676.615    22503680.954    60491027.475 8 -72460984.655 8
  23974510.246    23974513.679    21072809.216 8 -22227741.300 8
  22009397.006    22009399.818    83239404.279 8-122927904.592 8
 90  2 23  9 13 14.0800000  0  4G 3G12G14G13
  21641303.894    21641307.455    28045016.983 8 -53630462.692 7
  22512718.900    22512723.390    60538543.479 9 -72423959.210 8
  23979235.319    23979240.788    21097631.331 8 -22208399.442 8
  22013212.981    22013217.513    83259462.541 9-122912274.777 7
 90  2 23  9 13 29.0800000  0  4G 3G12G14G13
  21639298.804    21639301.548    28034476.184 8 -53638676.299 8
  22521773.538    22521777.732    60586128.821 9 -72386879.742 7
  23983980.671    23983984.548    21122575.386 8 -22188962.498 8
  22017032.191    22017036.632    83279533.855 9-122896634.802 7
 90  2 23  9 13 44.0800000  0  4G 3G12G14G13
  21637298.541    21637301.012    28023962.535 8 -53646868.756 7
  22530841.502    22530847.182    60633783.234 9 -72349746.451 8
  23988750.118    23988754.412    21147641.174 8 -22169430.739 9
  22020855.119    22020857.572    83299618.386 9-122880984.522 8
 90  2 23  9 13 59.0800000  0  4G 3G12G14G13
  21635302.565    21635305.685    28013476.108 9 -53655039.991 7
  22539924.186    22539927.850    60681506.141 9 -72312559.771 8
  23993543.692    23993549.341    21172828.395 8 -22149804.365 7
  22024679.822    22024683.579    83319716.111 8-122865323.964 7
 90  2 23  9 14 14.0800000  0  4G 3G12G14G13
  21633312.379    21633315.227    28003016.792 9 -53663190.105 7
  22549017.487    22549022.058    60729297.205 9 -72275320.001 8
  23998360.629    23998360.843    21198137.312 8 -22130083.118 7
  22028505.672    22028509.111    83339826.944 8-122849653.181 7
 90  2 23  9 14 29.0800000  0  4G 3G12G14G13
  21631327.293    21631329.676    27992584.500 9 -53671319.172 6
  22558124.106    22558129.502    60777155.994 9 -72238027.448 7
  24003200.827    24003204.297    21223567.683 8 -22110267.230 8
  22032334.782    22032339.293    83359950.877 9-122833972.219 8
 90  2 23  9 14 44.0800000  0  4G 3G12G14G13
  21629347.670    21629350.699    27982179.451 8 -53679427.019 7
  22567244.765    22567248.558    60825081.910 9 -72200682.597 8
  24008060.138    24008066.173    21249119.006 8 -22090357.174 8
  22036167.127    22036171.639    83380087.882 8-122818281.053 8
 90  2 23  9 14 59.0800000  0  4G 3G12G14G13
  21627372.566    21627375.191    27971801.273 9 -53687513.889 7
  22576377.016    22576381.001    60873074.616 9 -72163285.682 8
  24012946.212    24012949.885    21274791.343 8 -22070352.707 7
  22040001.703    22040005.917    83400237.967 8-122802579.703 7
 90  2 23  9 15 14.0800000  0  4G 3G12G14G13
  21625402.725    21625406.010    27961450.130 8 -53695579.718 7
  22585523.349    22585528.049    60921133.692 9 -72125837.073 7
  24017854.337    24017861.227    21300584.285 7 -22050254.363 8
  22043838.256    22043842.851    83420401.050 9-122786868.212 7
 90  2 23  9 15 29.0800000  0  4G 3G12G14G13
  21623437.802    21623440.540    27951125.993 8 -53703624.497 7
  22594679.972    22594685.765    60969258.868 9 -72088336.975 7
  24022786.590    24022786.771    21326497.718 8 -22030062.041 8
  22047677.610    22047682.911    83440577.238 8-122771146.512 8
 90  2 23  9 15 44.0800000  0  4G 3G12G14G13
  21621478.991    21621482.156    27940828.773 8 -53711648.300 7
  22603851.374    22603855.548    61017449.576 9 -72050785.765 8
  24027737.719    24027746.059    21352531.599 7 -22009775.919 8
  22051519.429    22051524.455    83460766.625 9-122755414.542 7
 90  2 23  9 15 59.0800000  0  4G 3G12G14G13
  21619524.056    21619527.475    27930558.371 9 -53719651.229 7
  22613034.069    22613038.898    61065705.284 9 -72013183.940 9
  24032718.337    24032722.060    21378685.718 8 -21989396.112 8
  22055364.997    22055368.219    83480969.266 8-122739672.218 7
 90  2 23  9 16 14.0800000  0  4G 3G12G14G13
  21617574.496    21617577.063    27920314.902 8 -53727633.126 7
  22622228.956    22622233.044    61114025.657 9 -71975531.714 7
  24037715.409    24037718.625    21404959.795 8 -21968922.790 9
  22059211.222    22059215.061    83501185.045 8-122723919.670 7
 90  2 23  9 16 29.0800000  0  4G 3G12G14G13
  21615630.723    21615632.673    27910098.344 8 -53735594.109 7
  22631436.015    22631441.932    61162410.259 8 -71937829.448 9
  24042742.062    24042744.890    21431353.722 7 -21948356.067 9
  22063061.370    22063065.017    83521414.101 9-122708156.773 8
 90  2 23  9 16 44.0800000  0  4G 3G12G14G13
  21613691.239    21613694.857    27899908.612 7 -53743534.165 7
  22640655.151    22640661.311    61210858.699 9 -71900077.437 7
  24047783.768    24047788.482    21457867.393 8 -21927696.110 8
  22066912.541    22066917.181    83541656.381 8-122692383.581 7
 90  2 23  9 16 59.0800000  0  4G 3G12G14G13
  21611756.849    21611760.409    27889745.673 9 -53751453.331 7
  22649886.899    22649892.347    61259370.637 9 -71862275.938 7
  24052856.399    24052856.629    21484500.425 9 -21906943.028 8
  22070767.352    22070771.377    83561911.936 9-122676600.029 7
 90  2 23  9 17 14.0800000  0  4G 3G12G14G13
  21609827.878    21609831.624    27879609.461 9 -53759351.665 7
  22659130.369    22659135.405    61307945.563 9 -71824425.356 7
  24057941.159    24057949.057    21511252.566 8 -21886097.263 8
  22074623.739    22074629.196    83582180.585 9-122660806.296 7
 90  2 23  9 17 29.0800000  0  4G 3G12G14G13
  21607904.391    21607907.140    27869500.062 9 -53767229.123 7
  22668385.432    22668390.518    61356583.038 9 -71786526.047 8
  24063059.059    24063059.000    21538123.739 8 -21865158.638 7
  22078483.186    22078488.039    83602462.159 9-122645002.463 7
 90  2 23  9 17 44.0800000  0  4G 3G12G14G13
  21605986.451    21605987.791    27859417.293 8 -53775085.822 6
  22677653.725    22677658.601    61405282.486 9 -71748578.432 7
  24068190.971    24068197.096    21565113.859 7 -21844127.396 8
  22082345.464    22082350.103    83622756.894 8-122629188.383 8
 90  2 23  9 17 59.0800000  0  4G 3G12G14G13
  21604072.202    21604075.604    27849361.324 8 -53782921.655 7
  22686931.966    22686936.924    61454043.610 9 -71710582.783 8
  24073354.534    24073356.853    21592222.769 8 -21823003.587 8
  22086211.061    22086215.014    83643064.756 9-122613364.083 7
 90  2 23  9 18 14.0800000  0  4G 3G12G14G13
  21602163.740    21602166.980    27839332.000 8 -53790736.703 7
  22696223.041    22696228.221    61502866.017 9 -71672539.348 8
  24078528.595    24078535.784    21619450.308 8 -21801787.329 7
  22090077.779    22090082.226    83663386.043 9-122597529.314 7
 90  2 23  9 18 29.0800000  0  4G 3G12G14G13
  21600259.517    21600263.313    27829329.358 9 -53798530.990 7
  22705525.036    22705529.335    61551749.214 9 -71634448.563 8
  24083739.538    24083741.388    21646795.903 8 -21780479.073 9
  22093947.387    22093950.834    83683720.580 8-122581684.227 7
 90  2 23  9 18 44.0800000  0  4G 3G12G14G13
  21598362.367    21598364.671    27819353.445 8 -53806304.417 7
  22714838.346    22714843.780    61600692.810 8 -71596310.741 8
  24088961.093    24088966.205    21674259.536 8 -21759078.832 7
  22097819.426    22097823.073    83704068.447 9-122565828.753 7
 90  2 23  9 18 59.0800000  0  4G 3G12G14G13
  21596469.595    21596470.677    27809404.033 9 -53814057.207 7
  22724163.333    22724168.944    61649696.340 9 -71558126.191 8
  24094213.517    24094215.389    21701841.009 8 -21737586.744 8
  22101693.552    22101698.403    83724429.479 8-122549963.018 8
 90  2 23  9 19 14.0800000  0  4G 3G12G14G13
  21594581.436    21594583.475    27799481.400 8 -53821789.136 8
  22733499.766    22733503.876    61698759.566 8 -71519895.125 8
  24099480.616    24099487.897    21729540.275 8 -21716002.917 9
  22105569.453    22105574.521    83744803.723 8-122534087.002 8
 90  2 23  9 19 29.0800000  0  4G 3G12G14G13
  21592697.539    21592700.976    27789585.204 8 -53829500.467 6
  22742848.543    22742852.179    61747881.898 8 -71481618.008 7
  24104776.488    24104779.182    21757357.129 8 -21694327.454 7
  22109449.736    22109454.016    83765191.121 8-122518200.729 8
 90  2 23  9 19 44.0800000  0  4G 3G12G14G13
  21590819.915    21590822.346    27779715.605 8 -53837191.061 8
  22752207.462    22752211.877    61797062.936 8 -71443295.158 9
  24110091.930    24110096.463    21785291.313 8 -21672560.521 8
  22113331.875    22113335.741    83785591.992 8-122502303.964 7
 90  2 23  9 19 59.0800000  0  4G 3G12G14G13
  21588947.316    21588950.185    27769872.534 9 -53844860.991 8
  22761576.271    22761582.108    61846302.170 8 -71404926.945 7
  24115430.339    24115433.805    21813342.583 9 -21650702.440 8
  22117218.794    22117221.530    83806006.314 9-122486396.694 7
 90  2 23  9 20 14.0800000  0  4G 3G12G14G13
  21587078.443    21587082.410    27760055.974 8 -53852510.257 8
  22770958.171    22770962.867    61895599.155 8 -71366513.733 8
  24120790.510    24120791.911    21841510.484 8 -21628753.390 8
  22121104.885    22121107.164    83826433.769 9-122470479.208 6
 90  2 23  9 20 29.0800000  0  4G 3G12G14G13
  21585215.520    21585219.345    27750265.831 8 -53860138.937 7
  22780348.913    22780355.306    61944953.526 8 -71328055.825 8
  24126172.432    24126176.413    21869795.053 8 -21606713.495 8
  22124993.179    22124998.307    83846874.548 8-122454551.342 7
 90  2 23  9 20 44.0800000  0  4G 3G12G14G13
  21583358.282    21583361.283    27740502.167 9 -53867746.978 7
  22789751.978    22789757.290    61994364.965 9 -71289553.418 8
  24131576.522    24131579.624    21898195.977 7 -21584582.914 7
  22128885.282    22128889.772    83867328.716 9-122438613.038 7
 90  2 23  9 20 59.0800000  0  4G 3G12G14G13
  21581504.389    21581507.876    27730764.976 8 -53875334.411 7
  22799166.055    22799170.421    62043832.951 8 -71251006.963 9
  24137002.928    24137006.663    21926713.211 8 -21562361.684 8
  22132781.700    22132784.936    83887796.253 8-122422664.307 8
 90  2 23  9 21 14.0800000  0  4G 3G12G14G13
  21579657.276    21579660.314    27721054.340 9 -53882901.141 7
  22808588.875    22808595.370    62093356.936 9 -71212416.853 9
  24142452.297    24142457.345    21955346.653 7 -21540049.934 7
  22136677.949    22136682.978    83908277.128 9-122406705.202 7
 90  2 23  9 21 29.0800000  0  4G 3G12G14G13
  21577814.465    21577817.392    27711370.165 9 -53890447.243 7
  22818023.803    22818028.895    62142936.621 8 -71173783.369 8
  24147922.569    24147926.133    21984096.075 7 -21517647.780 8
  22140578.175    22140582.044    83928771.501 8-122390735.556 8
 90  2 23  9 21 44.0800000  0  4G 3G12G14G13
  21575975.861    21575978.203    27701712.357 8 -53897972.799 7
  22827467.824    22827474.571    62192571.461 8 -71135106.881 9
  24153416.440    24153419.779    22012961.028 7 -21495155.581 8
  22144481.127    22144483.763    83949279.421 9-122374755.362 7
 90  2 23  9 21 59.0800000  0  4G 3G12G14G13
  21574143.038    21574146.479    27692081.005 8 -53905477.751 7
  22836924.226    22836929.704    62242261.161 8 -71096387.668 8
  24158929.325    24158933.813    22041941.614 7 -21472573.321 7
  22148384.592    22148389.412    83969800.958 8-122358764.568 7
 90  2 23  9 22 14.0800000  0  4G 3G12G14G13
  21572315.061    21572317.531    27682475.846 8 -53912962.302 7
  22846390.787    22846395.728    62292005.183 8 -71057626.115 8
  24164465.551    24164471.736    22071037.225 8 -21449901.404 8
  22152293.770    22152297.336    83990335.912 8-122342763.310 7
 90  2 23  9 22 29.0800000  0  4G 3G12G14G13
  21570492.632    21570496.310    27672897.270 9 -53920426.129 7
  22855866.955    22855873.835    62341803.043 9 -71018822.616 8
  24170025.434    24170030.316    22100247.829 8 -21427139.935 8
  22156203.187    22156207.478    84010884.413 8-122326751.501 8
 90  2 23  9 22 44.0800000  0  4G 3G12G14G13
  21568675.235    21568676.635    27663345.076 9 -53927869.392 8
  22865354.054    22865358.511    62391654.478 8 -70979977.349 8
  24175605.973    24175609.633    22129573.200 8 -21404288.985 8
  22160116.091    22160121.269    84031446.517 9-122310729.104 7
 90  2 23  9 22 59.0800000  0  4G 3G12G14G13
  21566862.152    21566865.759    27653819.202 9 -53935292.147 8
  22874850.265    22874854.912    62441558.954 8 -70941090.758 8
  24181208.885    24181210.737    22159013.218 8 -21381348.678 7
  22164032.801    22164036.422    84052021.965 8-122294696.282 8
 90  2 23  9 23 14.0800000  0  4G 3G12G14G13
  21565054.039    21565056.525    27644319.744 8 -53942694.332 8
  22884357.636    22884362.136    62491516.088 9 -70902163.146 8
  24186830.950    24186836.968    22188567.515 7 -21358319.378 7
  22167949.743    22167953.897    84072610.917 9-122278652.949 8
 90  2 23  9 23 29.0800000  0  4G 3G12G14G13
  21563251.580    21563254.152    27634846.544 9 -53950076.045 7
  22893874.107    22893878.624    62541525.482 8 -70863194.812 8
  24192477.837    24192482.871    22218235.880 7 -21335201.160 8
  22171871.120    22171874.599    84093213.588 8-122262598.930 7
 90  2 23  9 23 44.0800000  0  4G 3G12G14G13
  21561454.251    21561456.368    27625399.726 9 -53957437.197 7
  22903399.680    22903404.800    62591586.587 9 -70824186.183 7
  24198145.055    24198149.629    22248018.220 8 -21311994.146 6
  22175794.703    22175797.454    84113829.805 9-122246534.336 8
 90  2 23  9 23 59.0800000  0  4G 3G12G14G13
  21559661.988    21559663.831    27615979.233 9 -53964777.834 8
  22912937.414    22912940.806    62641699.150 8 -70785137.447 8
  24203833.731    24203836.247    22277914.143 8 -21288698.596 7
  22179720.570    22179724.385    84134459.775 8-122230459.034 8
 90  2 23  9 24 14.0800000  0  4G 3G12G14G13
  21557874.134    21557877.346    27606584.963 8 -53972098.059 7
  22922481.340    22922486.561    62691862.709 9 -70746048.993 8
  24209545.199    24209547.873    22307923.683 7 -21265314.523 7
  22183647.728    22183652.039    84155103.317 8-122214373.176 7
 90  2 23  9 24 29.0800000  0  4G 3G12G14G13
  21556091.824    21556093.909    27597216.962 8 -53979397.792 8
  22932038.384    22932042.316    62742076.696 9 -70706921.216 8
  24215277.999    24215281.812    22338046.464 7 -21241842.261 8
  22187578.549    22187583.400    84175760.495 9-122198276.675 7
 90  2 23  9 24 44.0800000  0  4G 3G12G14G13
  21554313.480    21554315.611    27587875.189 8 -53986677.115 7
  22941602.533    22941605.467    62792340.753 8 -70667754.434 8
  24221033.190    24221034.227    22368282.462 8 -21218281.698 7
  22191512.404    22191516.455    84196431.403 8-122182169.475 7
 90  2 23  9 24 59.0800000  0  4G 3G12G14G13
  21552541.601    21552544.289    27578559.804 8 -53993935.832 8
  22951176.996    22951181.909    62842654.568 9 -70628548.887 7
  24226806.274    24226810.135    22398631.229 8 -21194633.300 7
  22195449.036    22195453.343    84217116.198 8-122166051.472 7
 90  2 23  9 25 14.0800000  0  4G 3G12G14G13
  21550772.517    21550774.687    27569270.558 9 -54001174.208 8
  22960759.529    22960765.001    62893017.461 8 -70589305.100 7
  24232603.963    24232605.996    22429092.535 7 -21170897.187 7
  22199387.839    22199391.946    84237814.603 8-122149922.833 8
 90  2 23  9 25 29.0800000  0  4G 3G12G14G13
  21549010.042    21549014.056    27560007.557 9 -54008392.140 8
  22970352.076    22970359.114    62943429.081 8 -70550023.352 8
  24238421.336    24238423.029    22459665.928 8 -21147073.746 7
  22203328.734    22203333.688    84258526.921 8-122133783.365 7
 90  2 23  9 25 44.0800000  0  4G 3G12G14G13
  21547252.443    21547255.489    27550770.807 8 -54015589.599 7
  22979956.044    22979960.668    62993888.871 9 -70510704.049 8
  24244261.575    24244263.963    22490351.444 8 -21123162.930 7
  22207273.033    22207277.160    84279252.936 8-122117633.233 7
 90  2 23  9 25 59.0800000  0  4G 3G12G14G13
  21545499.993    21545501.840    27541560.293 8 -54022766.623 6
  22989566.555    22989571.451    63044396.535 9 -70471347.450 8
  24250119.799    24250125.632    22521148.777 7 -21099165.051 7
  22211219.966    22211223.702    84299992.862 8-122101472.267 8
 90  2 23  9 26 14.0800000  0  4G 3G12G14G13
  21543752.714    21543754.995    27532376.116 8 -54029923.143 8
  22999186.607    22999192.423    63094951.697 8 -70431953.836 8
  24256000.454    24256005.733    22552058.180 8 -21075079.819 8
  22215168.498    22215172.400    84320746.623 7-122085300.523 8
 90  2 23  9 26 29.0800000  0  4G 3G12G14G13
  21542009.593    21542012.589    27523218.074 9 -54037059.278 7
  23008815.996    23008821.952    63145553.906 9 -70392523.564 8
  24261906.515    24261908.264    22583078.948 7 -21050907.779 7
  22219120.556    22219124.979    84341514.370 9-122069117.865 7
 90  2 23  9 26 44.0800000  0  4G 3G12G14G13
  21540272.168    21540274.382    27514086.316 8 -54044174.928 6
  23018454.792    23018460.204    63196202.794 8 -70353056.909 8
  24267831.544    24267833.119    22614211.081 8 -21026648.960 7
  22223075.962    22223080.083    84362296.055 8-122052924.339 7
 90  2 23  9 26 59.0800000  0  4G 3G12G14G13
  21538540.050    21538542.127    27504980.748 8 -54051270.179 6
  23028102.146    23028107.562    63246897.786 9 -70313554.356 7
  24273775.720    24273779.337    22645454.174 7 -21002303.651 8
  22227033.482    22227037.580    84383091.521 8-122036720.097 9
 90  2 23  9 27 14.0800000  0  4G 3G12G14G13
  21536811.652    21536815.200    27495901.478 9 -54058344.944 7
  23037755.890    23037763.528    63297638.612 9 -70274016.076 8
  24279741.719    24279744.926    22676807.957 6 -20977872.172 8
  22230992.692    22230997.501    84403901.002 9-122020504.918 8
 90  2 23  9 27 29.0800000  0  4G 3G12G14G13
  21535088.008    21535091.062    27486848.380 8 -54065399.300 7
  23047420.681    23047426.755    63348424.720 8 -70234442.502 8
  24285730.105    24285731.556    22708272.364 8 -20953354.436 7
  22234954.821    22234960.216    84424724.670 8-122004278.702 8
 90  2 23  9 27 44.0800000  0  4G 3G12G14G13
  21533371.032    21533373.312    27477821.657 9 -54072433.091 7
  23057095.138    23057099.474    63399255.695 9 -70194833.970 8
  24291737.046    24291741.276    22739847.059 8 -20928750.739 8
  22238920.813    22238924.406    84445562.542 9-121988041.408 6
 90  2 23  9 27 59.0800000  0  4G 3G12G14G13
  21531657.542    21531660.961    27468820.911 8 -54079446.665 7
  23066774.303    23066780.148    63450131.067 8 -70155190.859 9
  24297767.151    24297770.637    22771531.674 7 -20904061.420 7
  22242887.270    22242891.977    84466414.816 9-121971792.896 8
 90  2 23  9 28 14.0800000  0  4G 3G12G14G13
  21529948.197    21529954.442    27459846.424 8 -54086439.788 7
  23076464.242    23076470.195    63501050.447 7 -70115513.440 8
  24303814.467    24303820.121    22803326.264 6 -20879286.435 7
  22246859.467    22246863.697    84487281.054 8-121955533.485 9
 90  2 23  9 28 29.0800000  0  4G 3G12G14G13
  21528246.367    21528251.996    27450898.170 8 -54093412.436 8
  23086163.172    23086167.726    63552013.344 8 -70075802.108 8
  24309889.933    24309893.110    22835230.445 8 -20854426.045 8
  22250833.017    22250836.652    84508161.262 9-121939263.200 8
 90  2 23  9 28 44.0800000  0  4G 3G12G14G13
  21526549.595    21526553.797    27441976.295 7 -54100364.542 8
  23095868.556    23095874.265    63603019.386 8 -70036057.194 8
  24315979.324    24315984.353    22867243.945 7 -20829480.465 8
  22254809.060    22254813.061    84529055.552 8-121922981.936 8
 90  2 23  9 28 59.0800000  0  4G 3G12G14G13
  21524857.349    21524860.889    27433080.529 8 -54107296.300 6
  23105583.408    23105587.270    63654068.223 8 -69996278.899 8
  24322093.784    24322094.881    22899366.363 7 -20804449.976 8
  22258787.066    22258790.689    84549964.187 8-121906689.491 8
 90  2 23  9 29 14.0800000  0  4G 3G12G14G13
  21523169.065    21523173.573    27424211.123 8 -54114207.521 8
  23115305.398    23115310.810    63705159.320 8 -69956467.682 8
  24328225.547    24328230.365    22931597.714 7 -20779334.642 9
  22262769.971    22262772.895    84570886.999 8-121890386.010 6
 90  2 23  9 29 29.0800000  0  4G 3G12G14G13
  21521486.660    21521488.830    27415367.857 8 -54121098.365 7
  23125035.163    23125041.695    63756292.288 7 -69916623.873 9
  24334380.950    24334384.302    22963937.637 7 -20754134.716 8
  22266753.680    22266758.043    84591824.075 8-121874071.411 8
 90  2 23  9 29 44.0800000  0  4G 3G12G14G13
  21519809.696    21519812.136    27406550.916 8 -54127968.717 7
  23134773.189    23134779.312    63807466.731 8 -69876747.689 8
  24340556.041    24340559.213    22996385.885 8 -20728850.366 9
  22270739.994    22270744.846    84612775.496 8-121857745.628 7
 90  2 23  9 29 59.0800000  0  4G 3G12G14G13
  21518136.146    21518138.815    27397760.093 8 -54134818.699 8
  23144520.459    23144525.025    63858682.234 8 -69836839.540 8
  24346751.079    24346754.789    23028942.386 8 -20703481.661 8
  22274728.765    22274733.464    84633741.256 8-121841408.684 8
 90  2 23  9 30 14.0800000  0  4G 3G12G14G13
  21516467.214    21516470.915    27388995.535 8 -54141648.224 7
  23154273.958    23154279.584    63909938.305 9 -69796899.785 8
  24352965.041    24352970.093    23061606.978 7 -20678028.759 7
  22278721.629    22278726.456    84654721.532 8-121825060.444 8
 90  2 23  9 30 29.0800000  0  4G 3G12G14G13
  21514805.142    21514807.820    27380257.166 8 -54148457.341 6
  23164034.888    23164041.486    63961234.550 8 -69756928.698 7
  24359201.787    24359206.539    23094379.194 8 -20652492.001 9
  22282718.016    22282721.525    84675716.214 8-121808700.931 6
 90  2 23  9 30 44.0800000  0  4G 3G12G14G13
  21513147.434    21513149.984    27371545.081 9 -54155245.994 7
  23173804.946    23173809.242    64012570.516 8 -69716926.667 9
  24365459.855    24365464.366    23127258.657 9 -20626871.615 9
  22286714.258    22286719.570    84696725.374 8-121792330.179 7
 90  2 23  9 30 59.0800000  0  4G 3G12G14G13
  21511494.315    21511497.927    27362859.213 9 -54162014.198 7
  23183580.910    23183586.126    64063945.725 8 -69676894.069 8
  24371738.196    24371739.540    23160245.476 9 -20601167.592 7
  22290716.254    22290718.899    84717749.147 9-121775948.023 7
 90  2 23  9 31 14.0800000  0  4G 3G12G14G13
  21509845.702    21509849.745    27354199.508 8 -54168762.012 8
  23193363.970    23193369.719    64115359.745 8 -69636831.225 7
  24378034.091    24378037.450    23193339.211 8 -20575380.272 8
  22294718.737    22294724.531    84738787.459 9-121759554.559 7
 90  2 23  9 31 29.0800000  0  4G 3G12G14G13
  21508204.696    21508207.482    27345566.022 9 -54175489.402 6
  23203154.903    23203160.680    64166812.089 9 -69596738.516 8
  24384351.857    24384356.119    23226539.568 9 -20549509.877 8
  22298725.681    22298729.488    84759840.263 9-121743149.765 7
 90  2 23  9 31 44.0800000  0  4G 3G12G14G13
  21506565.753    21506568.811    27336958.901 9 -54182196.233 7
  23212954.105    23212959.311    64218302.389 8 -69556616.228 9
  24390690.177    24390692.658    23259846.371 8 -20523556.506 7
  22302734.314    22302738.203    84780907.818 8-121726733.491 7
 90  2 23  9 31 59.0800000  0  4G 3G12G14G13
  21504932.720    21504936.824    27328378.127 9 -54188882.570 8
  23222758.003    23222764.960    64269830.320 8 -69516464.632 8
  24397048.357    24397052.052    23293259.379 9 -20497520.370 8
  22306746.726    22306749.762    84801990.013 8-121710305.803 8
 90  2 23  9 32 14.0800000  0  4G 3G12G14G13
  21503304.452    21503308.463    27319823.503 8 -54195548.490 7
  23232570.920    23232577.543    64321395.422 8 -69476284.067 8
  24403426.261    24403430.441    23326778.294 9 -20471401.764 8
  22310760.340    22310763.722    84823086.731 9-121693866.822 7
 90  2 23  9 32 29.0800000  0  4G 3G12G14G13
  21501682.006    21501685.378    27311295.280 8 -54202193.850 7
  23242390.232    23242396.250    64372997.338 9 -69436074.812 9
  24409824.978    24409828.847    23360403.159 8 -20445200.600 8
  22314778.101    22314783.326    84844198.286 9-121677416.271 8
 90  2 23  9 32 44.0800000  0  4G 3G12G14G13
  21500064.651    21500066.355    27302793.409 9 -54208818.694 7
  23252217.574    23252222.920    64424635.518 8 -69395837.275 8
  24416244.997    24416247.951    23394133.295 8 -20418917.369 7
  22318798.958    22318804.369    84865324.828 8-121660954.038 7
 90  2 23  9 32 59.0800000  0  4G 3G12G14G13
  21498451.136    21498454.613    27294317.798 8 -54215423.069 6
  23262050.518    23262057.832    64476309.605 8 -69355571.806 8
  24422682.015    24422685.935    23427968.668 8 -20392552.158 7
  22322822.182    22322825.893    84886466.197 8-121644480.255 7
 90  2 23  9 33 14.0800000  0  4G 3G12G14G13
  21496844.500    21496846.651    27285868.589 9 -54222006.868 6
  23271889.549    23271896.432    64528019.105 8 -69315278.705 8
  24429141.121    24429145.357    23461909.050 9 -20366105.076 7
  22326848.304    22326853.015    84907622.360 8-121627994.951 7
 90  2 23  9 33 29.0800000  0  4G 3G12G14G13
  21495241.429    21495243.516    27277445.532 9 -54228570.280 7
  23281737.888    23281743.684    64579763.574 8 -69274958.378 9
  24435619.053    24435623.740    23495954.027 8 -20339576.525 7
  22330877.344    22330881.150    84928793.448 9-121611498.002 7
 90  2 23  9 33 44.0800000  0  4G 3G12G14G13
  21493643.677    21493645.510    27269049.027 9 -54235113.017 8
  23291591.263    23291597.295    64631542.519 8 -69234611.180 8
  24442117.715    24442121.796    23530103.489 8 -20312966.577 7
  22334908.048    22334912.494    84949979.486 8-121594989.405 7
 90  2 23  9 33 59.0800000  0  4G 3G12G14G13
  21492050.062    21492054.455    27260678.790 8 -54241635.298 7
  23301451.594    23301457.040    64683355.530 9 -69194237.414 8
  24448637.880    24448640.203    23564357.070 8 -20286275.437 9
  22338941.922    22338946.759    84971180.517 8-121578469.121 8
 90  2 23  9 34 14.0800000  0  4G 3G12G14G13
  21490461.634    21490464.904    27252334.792 7 -54248137.107 7
  23311316.840    23311322.594    64735202.278 9 -69153837.363 8
  24455173.913    24455179.293    23598714.768 9 -20259503.252 9
  22342978.801    22342984.155    84992396.666 8-121561937.076 6
 90  2 23  9 34 29.0800000  0  4G 3G12G14G13
  21488879.409    21488883.141    27244017.243 9 -54254618.307 7
  23321189.258    23321193.180    64787082.326 9 -69113411.358 8
  24461732.571    24461734.596    23633176.150 9 -20232650.259 8
  22347019.516    22347024.523    85013627.712 8-121545393.417 7
 90  2 23  9 34 44.0800000  0  4G 3G12G14G13
  21487301.855    21487304.310    27235726.047 9 -54261078.982 8
  23331067.493    23331073.400    64838995.306 9 -69072959.721 8
  24468309.831    24468312.559    23667740.949 9 -20205716.622 8
  22351062.179    22351067.722    85034873.935 9-121528837.950 7
 90  2 23  9 34 59.0800000  0  4G 3G12G14G13
  21485728.503    21485732.863    27227461.353 9 -54267518.998 7
  23340952.752    23340959.920    64890940.646 9 -69032482.863 8
  24474907.605    24474912.477    23702408.851 9 -20178702.668 8
  22355108.361    22355111.922    85056135.510 8-121512270.464 7
 90  2 23  9 35 14.0800000  0  4G 3G12G14G13
  21484160.450    21484165.021    27219223.060 8 -54273938.446 7
  23350844.058    23350849.168    64942917.924 9 -68991981.098 8
  24481522.899    24481527.023    23737179.607 8 -20151608.530 8
  22359157.058    22359162.213    85077412.355 8-121495691.124 7
 90  2 23  9 35 29.0800000  0  4G 3G12G14G13
  21482597.677    21482601.362    27211011.244 8 -54280337.256 7
  23360740.894    23360746.187    64994926.741 9 -68951454.763 7
  24488159.616    24488163.760    23772052.793 7 -20124434.607 7
  22363208.221    22363213.130    85098704.511 8-121479099.841 8
 90  2 23  9 35 44.0800000  0  4G 3G12G14G13
  21481040.551    21481046.705    27202825.862 8 -54286715.489 6
  23370643.964    23370648.841    65046966.665 8 -68910904.194 7
  24494815.450    24494820.359    23807028.277 8 -20097180.988 7
  22367262.899    22367268.152    85120011.867 8-121462496.715 7
 90  2 23  9 35 59.0800000  0  4G 3G12G14G13
  21479489.514    21479491.561    27194667.123 9 -54293072.929 7
  23380553.041    23380558.287    65099037.335 9 -68870329.664 8
  24501489.928    24501493.608    23842106.226 9 -20069847.505 6
  22371322.336    22371325.681    85141334.519 9-121445881.645 7
 90  2 23  9 36 14.0800000  0  4G 3G12G14G13
  21477940.566    21477942.305    27186534.640 8 -54299409.925 6
  23390466.105    23390472.815    65151138.195 9 -68829731.607 8
  24508184.352    24508189.329    23877286.098 9 -20042434.599 8
  22375382.704    22375388.179    85162672.650 8-121429254.549 7
 90  2 23  9 36 29.0800000  0  4G 3G12G14G13
  21476399.348    21476401.598    27178428.763 8 -54305726.189 7
  23400386.422    23400392.069    65203268.989 8 -68789110.252 6
  24514899.374    24514902.780    23912567.392 8 -20014942.696 8
  22379446.515    22379450.668    85184026.279 7-121412615.354 7
 90  2 23  9 36 44.0800000  0  4G 3G12G14G13
  21474860.210    21474863.477    27170349.438 8 -54312021.772 7
  23410312.822    23410319.507    65255429.035 9 -68748466.086 8
  24521629.995    24521636.572    23947950.071 8 -19987371.811 7
  22383512.445    22383516.957    85205395.442 8-121395964.069 7
 90  2 23  9 36 59.0800000  0  4G 3G12G14G13
  21473328.389    21473331.152    27162296.761 8 -54318296.579 7
  23420244.241    23420249.538    65307618.067 9 -68707799.316 7
  24528383.115    24528386.163    23983433.586 8 -19959722.309 7
  22387580.237    22387585.233    85226780.024 9-121379300.778 7
 90  2 23  9 37 14.0800000  0  4G 3G12G14G13
  21471800.670    21471804.804    27154270.635 8 -54324550.703 8
  23430181.069    23430186.561    65359835.649 8 -68667110.310 8
  24535155.501    24535158.970    24019017.972 9 -19931994.243 7
  22391654.170    22391659.229    85248180.400 8-121362625.162 8
 90  2 23  9 37 29.0800000  0  4G 3G12G14G13
  21470278.826    21470281.283    27146271.076 9 -54330784.118 6
  23440123.801    23440128.512    65412081.407 8 -68626399.351 8
  24541946.426    24541949.488    24054703.030 7 -19904187.693 7
  22395728.429    22395733.695    85269596.447 8-121345937.353 8
 90  2 23  9 37 44.0800000  0  4G 3G12G14G13
  21468762.376    21468764.443    27138298.156 8 -54336996.790 7
  23450070.292    23450074.755    65464354.867 8 -68585666.821 7
  24548757.188    24548758.835    24090488.399 8 -19876302.966 7
  22399806.123    22399811.946    85291028.223 8-121329237.271 7
 90  2 23  9 37 59.0800000  0  4G 3G12G14G13
  21467250.009    21467253.016    27130351.860 7 -54343188.702 7
  23460022.308    23460027.714    65516655.470 8 -68544913.148 8
  24555586.055    24555589.346    24126373.702 8 -19848340.388 8
  22403888.193    22403894.421    85312475.740 8-121312524.932 8
 90  2 23  9 38 14.0800000  0  4G 3G12G14G13
  21465741.960    21465745.721    27122432.201 9 -54349359.865 7
  23469980.180    23469984.803    65568982.843 9 -68504138.547 7
  24562432.889    24562437.377    24162358.807 8 -19820300.042 9
  22407972.582    22407977.675    85333938.907 9-121295800.381 7
 90  2 23  9 38 29.0800000  0  4G 3G12G14G13
  21464239.396    21464244.884    27114539.176 8 -54355510.276 6
  23479942.249    23479949.220    65621336.717 8 -68463343.394 8
  24569298.216    24569302.707    24198443.428 8 -19792182.165 8
  22412060.885    22412065.196    85355418.013 8-121279063.409 7
 90  2 23  9 38 44.0800000  0  4G 3G12G14G13
  21462742.963    21462746.876    27106672.845 8 -54361639.892 7
  23489907.372    23489916.356    65673716.554 7 -68422527.951 7
  24576184.302    24576188.745    24234626.874 8 -19763987.315 8
  22416149.877    22416154.763    85376913.041 8-121262314.057 7
 90  2 23  9 38 59.0800000  0  4G 3G12G14G13
  21461251.742    21461255.387    27098833.309 8 -54367748.621 7
  23499883.339    23499888.593    65726121.941 8 -68381692.600 8
  24583087.898    24583094.068    24270909.375 8 -19735715.239 7
  22420244.628    22420249.582    85398424.049 8-121245552.230 8
 90  2 23  9 39 14.0800000  0  4G 3G12G14G13
  21459764.906    21459768.074    27091020.500 8 -54373836.517 8
  23509860.271    23509866.139    65778552.611 7 -68340837.553 8
  24590012.717    24590016.478    24307290.616 9 -19707366.288 8
  22424340.028    22424345.587    85419951.196 8-121228777.841 8
 90  2 23  9 39 29.0800000  0  4G 3G12G14G13
  21458282.251    21458287.028    27083234.465 8 -54379903.565 6
  23519841.447    23519847.792    65831007.854 8 -68299963.380 8
  24596956.018    24596957.636    24343769.991 9 -19678940.778 7
  22428440.298    22428443.440    85441494.173 8-121211991.109 7
 90  2 23  9 39 44.0800000  0  4G 3G12G14G13
  21456807.268    21456809.710    27075475.207 8 -54385949.722 8
  23529829.228    23529834.595    65883487.362 8 -68259070.284 7
  24603915.487    24603918.696    24380347.443 8 -19650438.908 8
  22432542.717    22432547.043    85463053.363 9-121195191.748 7
 90  2 23  9 39 59.0800000  0  4G 3G12G14G13
  21455334.929    21455338.447    27067742.903 9 -54391974.894 7
  23539821.563    23539824.573    65935990.874 7 -68218158.478 7
  24610891.298    24610896.568    24417022.838 8 -19621860.716 8
  22436649.114    22436652.431    85484628.430 8-121178380.007 7
 90  2 23  9 40 14.0800000  0  4G 3G12G14G13
  21453868.345    21453872.602    27060037.496 8 -54397979.098 7
  23549813.873    23549822.566    65988517.865 8 -68177228.397 7
  24617890.829    24617894.341    24453795.864 6 -19593206.404 8
  22440757.823    22440760.947    85506219.818 8-121161555.547 8
 90  2 23  9 40 29.0800000  0  4G 3G12G14G13
  21452408.508    21452412.479    27052359.030 9 -54403962.327 7
  23559816.676    23559820.894    66041067.730 8 -68136280.464 8
  24624907.885    24624909.883    24490666.391 8 -19564476.157 7
  22444869.286    22444872.365    85527827.536 9-121144718.372 7
 90  2 23  9 40 44.0800000  0  4G 3G12G14G13
  21450952.828    21450955.473    27044707.405 8 -54409924.614 7
  23569819.079    23569825.897    66093640.127 9 -68095315.011 8
  24631943.004    24631946.122    24527633.878 7 -19535670.324 8
  22448984.296    22448986.586    85549451.774 8-121127868.322 7
 90  2 23  9 40 59.0800000  0  4G 3G12G14G13
  21449500.731    21449504.835    27037082.659 8 -54415865.972 7
  23579829.005    23579832.671    66146234.636 8 -68054332.298 8
  24638993.910    24638999.045    24564697.798 7 -19506789.380 7
  22453101.739    22453105.275    85571092.375 9-121111005.520 7
 90  2 23  9 41 14.0800000  0  2G 3G13
  21448055.329    21448058.046    27029485.029 7 -54421786.206 7
  22457222.638    22457227.884    85592749.418 8-121094129.927 8
 90  2 23  9 41 29.0800000  0  3G 3G16G13
  21446614.357    21446618.297    27021914.159 8 -54427685.576 8
                  23765832.813   -14875020.311 9
  22461347.263    22461351.719    85614422.771 8-121077241.609 6
 90  2 23  9 41 44.0800000  0  3G 3G16G13
  21445178.886    21445181.552    27014370.395 8 -54433563.844 7
  23755872.444    23755876.443   -14927554.078 8  18981846.599 7
  22465475.115    22465479.762    85636112.855 8-121060340.256 7
 90  2 23  9 41 59.0800000  0  3G 3G16G13
  21443749.484    21443751.336    27006853.705 8 -54439420.987 7
  23745879.598    23745882.733   -14980074.048 9  18940922.445 7
  22469606.408    22469609.717    85657819.730 8-121043425.822 8
 90  2 23  9 42 14.0800000  0  3G 3G16G13
  21442322.799    21442326.412    26999363.987 8 -54445257.143 7
  23735887.195    23735892.088   -15032580.516 9  18900008.341 8
  22473739.303    22473743.914    85679543.247 7-121026498.409 8
 90  2 23  9 42 29.0800000  0  3G 3G16G13
  21440903.508    21440906.841    26991901.530 8 -54451072.050 8
  23725898.431    23725902.907   -15085073.058 8  18859105.100 8
  22477876.086    22477880.082    85701283.272 8-121009558.144 7
 90  2 23  9 42 44.0800000  0  4G 3G19G16G13
  21439488.131    21439492.054    26984466.207 8 -54456865.802 8
                  23133942.132   -14637447.180 7
  23715913.189    23715916.378   -15137551.335 8  18818212.977 8
  22482017.198    22482020.926    85723039.917 8-120992604.929 8
 90  2 23  9 42 59.0800000  0  4G 3G19G16G13
  21438079.825    21438081.844    26977058.195 7 -54462638.265 6
                  23138259.556   -14614774.667 8
  23705929.320    23705933.473   -15190015.036 7  18777332.182 7
  22486160.548    22486165.927    85744813.452 8-120975638.548 6
 90  2 23  9 43 14.0800000  0  4G 3G19G16G13
  21436673.633    21436676.411    26969677.314 8 -54468389.607 7
                  23142584.480   -14592005.529 8
  23695948.649    23695952.819   -15242463.758 8  18736463.073 7
  22490306.503    22490311.508    85766603.957 8-120958658.950 7
 90  2 23  9 43 29.0800000  0  4G 3G19G16G13
  21435275.109    21435276.953    26962323.738 8 -54474119.678 7
                  23146969.233   -14569140.012 7
  23685970.896    23685974.019   -15294897.203 8  18695605.897 8
  22494456.331    22494459.554    85788411.589 8-120941665.985 8
 90  2 23  9 43 44.0800000  0  4G 3G19G16G13
  21433881.626    21433883.894    26954997.470 8 -54479828.451 7
  23151337.265    23151342.207   -14546178.069 8  19876659.538 7
  23675995.129    23675999.427   -15347314.962 8  18654760.891 8
  22498609.526    22498614.319    85810236.164 9-120924659.844 7
 90  2 23  9 43 59.0800000  0  4G 3G19G16G13
  21432492.459    21432495.780    26947698.595 8 -54485515.901 7
  23155725.270    23155729.255   -14523120.088 9  19894626.787 8
  23666023.645    23666028.034   -15399716.684 9  18613928.395 8
  22502766.480    22502769.067    85832077.952 8-120907640.249 7
 90  2 23  9 44 14.0800000  0  4G 3G19G16G13
  21431108.530    21431110.573    26940427.148 8 -54491181.954 7
  23160130.950    23160134.433   -14499966.440 8  19912668.578 7
  23656055.403    23656059.944   -15452101.998 8  18573108.708 8
  22506925.415    22506930.220    85853936.903 9-120890607.334 7
 90  2 23  9 44 29.0800000  0  4G 3G19G16G13
  21429729.751    21429733.269    26933183.207 8 -54496826.587 7
  23164555.496    23164560.939   -14476717.525 9  19930784.596 8
  23646089.785    23646093.625   -15504470.558 9  18532302.057 8
  22511089.696    22511091.272    85875813.118 9-120873560.909 6
 90  2 23  9 44 44.0800000  0  4G 3G19G16G13
  21428356.727    21428359.415    26925966.644 8 -54502449.883 7
  23168997.366    23169002.083   -14453373.590 8  19948974.655 6
  23636125.933    23636130.804   -15556822.082 7  18491508.671 8
  22515256.116    22515258.048    85897706.621 8-120856501.034 7
 90  2 23  9 44 59.0800000  0  4G 3G19G16G13
  21426988.421    21426991.315    26918777.643 7 -54508051.700 7
  23173458.274    23173462.086   -14429934.921 8  19967238.554 8
  23626168.441    23626172.636   -15609156.357 8  18450728.760 9
  22519424.841    22519428.797    85919617.201 8-120839427.881 8
 90  2 23  9 45 14.0800000  0  4G 3G19G16G13
  21425626.533    21425629.078    26911616.175 9 -54513632.062 6
  23177935.888    23177938.980   -14406401.767 8  19985576.071 8
  23616212.881    23616217.465   -15661472.769 9  18409962.753 8
  22523597.153    22523601.255    85941545.380 8-120822340.990 9
 90  2 23  9 45 29.0800000  0  4G 3G19G16G13
  21424267.792    21424271.191    26904482.236 8 -54519190.970 7
  23182432.174    23182436.736   -14382774.665 8  20003986.773 8
  23606259.520    23606264.911   -15713771.050 8  18369210.864 8
  22527773.918    22527777.466    85963491.118 8-120805240.438 8
 90  2 23  9 45 44.0800000  0  4G 3G19G16G13
  21422916.029    21422917.888    26897375.832 8 -54524728.421 7
  23186946.783    23186950.285   -14359053.972 9  20022470.419 7
  23596312.265    23596316.372   -15766050.785 8  18328473.438 8
  22531952.911    22531957.027    85985454.368 8-120788126.196 8
 90  2 23  9 45 59.0800000  0  4G 3G19G16G13
  21421568.733    21421571.447    26890297.271 8 -54530244.185 8
  23191477.650    23191482.201   -14335239.785 7  20041026.923 7
  23586368.617    23586371.503   -15818311.623 8  18287750.721 7
  22536135.615    22536140.143    86007435.325 8-120770998.210 8
 90  2 23  9 46 14.0800000  0  4G 3G19G16G13
  21420227.184    21420231.292    26883246.489 8 -54535738.312 8
  23196027.893    23196031.765   -14311332.285 8  20059656.144 7
  23576425.475    23576430.723   -15870553.238 8  18247042.988 8
  22540322.720    22540326.195    86029433.906 9-120753856.463 7
 90  2 23  9 46 29.0800000  0  4G 3G19G16G13
  21418890.736    21418894.340    26876223.294 8 -54541210.939 6
  23200594.671    23200598.448   -14287332.041 8  20078357.634 7
  23566489.581    23566493.665   -15922775.388 8  18206350.435 8
  22544512.118    22544515.011    86051450.176 9-120736700.931 7
 90  2 23  9 46 44.0800000  0  4G 3G19G16G13
  21417559.237    21417563.843    26869227.933 8 -54546661.861 7
  23205178.856    23205183.518   -14263239.342 8  20097131.129 7
  23556556.131    23556559.805   -15974977.629 8  18165673.377 8
  22548704.752    22548707.595    86073484.218 9-120719531.575 8
 90  2 23  9 46 59.0800000  0  4G 3G19G16G13
  21416234.493    21416236.093    26862260.310 8 -54552091.164 7
  23209780.435    23209785.865   -14239054.416 7  20115976.509 8
  23546624.464    23546630.471   -16027159.684 8  18125012.063 8
  22552900.217    22552906.199    86095535.998 8-120702348.372 7
 90  2 23  9 47 14.0800000  0  4G 3G19G16G13
  21414913.208    21414915.927    26855320.555 8 -54557498.773 7
  23214400.843    23214404.812   -14214777.529 8  20134893.554 7
  23536698.703    23536703.611   -16079320.956 8  18084366.955 8
  22557100.944    22557104.990    86117605.721 8-120685151.194 8
 90  2 23  9 47 29.0800000  0  4G 3G19G16G13
  21413597.709    21413599.508    26848408.826 8 -54562884.533 6
  23219037.055    23219042.516   -14190409.087 7  20153881.934 8
  23526777.358    23526781.652   -16131461.255 8  18043738.175 8
  22561303.506    22561308.651    86139693.413 8-120667940.025 8
 90  2 23  9 47 44.0800000  0  4G 3G19G16G13
  21412287.471    21412290.801    26841524.872 8 -54568248.655 8
  23223692.693    23223697.827   -14165949.612 7  20172941.261 7
  23516858.673    23516863.468   -16183580.364 7  18003125.913 9
  22565509.588    22565514.936    86161798.894 9-120650714.983 8
 90  2 23  9 47 59.0800000  0  4G 3G19G16G13
  21410982.417    21410985.490    26834668.998 8 -54573590.892 7
  23228364.673    23228369.625   -14141399.013 8  20192071.562 7
  23506945.447    23506949.989   -16235677.679 9  17962530.625 8
  22569720.250    22569724.292    86183922.373 8-120633475.909 8
 90  2 23  9 48 14.0800000  0  4G 3G19G16G13
  21409684.281    21409686.186    26827841.099 7 -54578911.354 7
  23233054.596    23233058.370   -14116757.677 8  20211272.609 7
  23497035.301    23497040.143   -16287753.100 7  17921952.383 8
  22573934.195    22573937.543    86206064.115 8-120616222.611 8
 90  2 23  9 48 29.0800000  0  4G 3G19G16G13
  21408390.385    21408393.433    26821041.392 9 -54584209.818 7
  23237759.390    23237764.739   -14092025.818 7  20230544.146 7
  23487129.715    23487134.037   -16339806.063 9  17881391.669 7
  22578150.856    22578153.988    86228224.160 8-120598955.060 8
 90  2 23  9 48 44.0800000  0  4G 3G19G16G13
  21407101.390    21407104.138    26814269.972 8 -54589486.259 8
  23242483.174    23242486.915   -14067204.127 7  20249885.719 7
  23477229.263    23477232.743   -16391836.245 8  17840848.704 7
  22582370.675    22582375.114    86250402.443 8-120581673.297 8
 90  2 23  9 48 59.0800000  0  4G 3G19G16G13
  21405818.401    21405819.952    26807526.640 8 -54594740.800 7
  23247225.709    23247227.874   -14042293.018 7  20269296.980 7
  23467331.968    23467337.860   -16443843.289 8  17800323.743 8
  22586594.739    22586598.738    86272598.953 8-120564377.334 8
 90  2 23  9 49 14.0800000  0  4G 3G19G16G13
  21404540.415    21404542.698    26800811.606 8 -54599973.288 7
  23251982.475    23251985.090   -14017292.459 7  20288777.925 7
  23457440.679    23457444.840   -16495826.877 8  17759817.087 8
  22590822.155    22590826.503    86294814.036 8-120547066.888 7
 90  2 23  9 49 29.0800000  0  4G 3G19G16G13
  21403267.293    21403269.786    26794124.787 9 -54605183.816 7
  23256757.161    23256760.293   -13992202.685 7  20308328.383 7
  23447551.692    23447557.059   -16547786.639 9  17719328.978 8
  22595052.909    22595058.214    86317047.407 9-120529742.186 7
 90  2 23  9 49 44.0800000  0  4G 3G19G16G13
  21402000.503    21402003.467    26787466.405 8 -54610372.161 7
  23261547.975    23261551.778   -13967024.359 7  20327947.846 8
  23437670.699    23437673.669   -16599722.362 9  17678859.612 8
  22599287.225    22599291.572    86339299.461 9-120512402.944 8
 90  2 23  9 49 59.0800000  0  4G 3G19G16G13
  21400739.321    21400742.692    26780836.389 9 -54615538.404 7
  23266355.370    23266359.875   -13941757.603 8  20347636.206 7
  23427792.072    23427796.003   -16651633.370 8  17638409.503 8
  22603525.890    22603530.262    86361570.052 8-120495049.243 8
 90  2 23  9 50 14.0800000  0  4G 3G19G16G13
  21399482.801    21399486.658    26774234.794 9 -54620682.523 7
  23271181.455    23271183.304   -13916402.791 7  20367393.190 7
  23417917.946    23417922.279   -16703519.515 8  17597978.759 8
  22607767.883    22607771.469    86383859.311 9-120477681.000 7
 90  2 23  9 50 29.0800000  0  4G 3G19G16G13
  21398232.262    21398234.796    26767661.757 9 -54625804.359 8
  23276021.115    23276027.520   -13890960.094 7  20387218.643 7
  23408049.050    23408054.293   -16755380.413 8  17557567.690 8
  22612012.096    22612016.798    86406167.460 8-120460298.040 7
 90  2 23  9 50 44.0800000  0  4G 3G19G16G13
  21396985.701    21396990.157    26761117.202 8 -54630904.014 7
  23280880.597    23280884.489   -13865430.002 6  20407112.218 8
  23398185.189    23398190.749   -16807215.680 8  17517176.604 8
  22616261.215    22616264.739    86428494.668 7-120442900.201 7
 90  2 23  9 50 59.0800000  0  4G 3G19G16G13
  21395747.012    21395750.415    26754601.390 8 -54635981.277 8
  23285754.200    23285757.670   -13839812.670 7  20427073.767 7
  23388325.975    23388330.874   -16859024.860 8  17476805.833 7
  22620512.997    22620516.855    86450840.716 9-120425487.703 8
 90  2 23  9 51 14.0800000  0  4G 3G19G16G13
  21394511.670    21394516.262    26748114.203 7 -54641036.215 8
  23290645.641    23290651.304   -13814108.699 7  20447102.820 8
  23378472.303    23378476.693   -16910807.712 8  17436455.598 8
  22624770.366    22624773.851    86473205.606 8-120408060.522 8
 90  2 23  9 51 29.0800000  0  4G 3G19G16G13
  21393282.909    21393287.187    26741655.723 8 -54646068.796 6
  23295553.476    23295558.725   -13788318.246 7  20467199.257 7
  23368623.200    23368627.669   -16962563.871 8  17396126.151 8
  22629028.496    22629033.286    86495589.463 9-120390618.572 7
 90  2 23  9 51 44.0800000  0  4G 3G19G16G13
  21392061.279    21392062.948    26735225.835 8 -54651079.093 7
  23300477.269    23300483.044   -13762441.595 6  20487362.860 6
  23358778.580    23358783.517   -17014293.074 8  17355817.687 7
  22633291.875    22633296.608    86517992.241 8-120373161.869 8
 90  2 23  9 51 59.0800000  0  4G 3G19G16G13
  21390842.135    21390845.051    26728824.905 8 -54656066.831 7
  23305419.326    23305423.485   -13736479.247 7  20507593.248 8
  23348940.477    23348945.683   -17065994.760 8  17315530.697 8
  22637558.498    22637562.108    86540414.332 8-120355690.113 7
 90  2 23  9 52 14.0800000  0  4G 3G19G16G13
  21389629.059    21389632.401    26722452.811 8 -54661032.086 8
  23310374.879    23310378.912   -13710431.332 6  20527890.329 7
  23339107.812    23339112.457   -17117668.808 9  17275265.236 8
  22641828.716    22641833.774    86562855.756 8-120338203.292 8
 90  2 23  9 52 29.0800000  0  4G 3G19G16G13
  21388421.792    21388425.096    26716109.774 9 -54665974.706 8
  23315348.240    23315352.762   -13684298.079 7  20548253.874 7
  23329279.896    23329283.856   -17169314.575 9  17235021.798 8
  22646102.850    22646106.339    86585316.613 8-120320701.330 6
 90  2 23  9 52 44.0800000  0  4G 3G19G16G13
  21387220.364    21387225.842    26709795.651 8 -54670894.819 7
  23320337.236    23320340.882   -13658080.065 8  20568683.497 7
  23319457.208    23319461.597   -17220931.866 9  17194800.559 8
  22650380.554    22650385.192    86607796.776 8-120303184.341 8
 90  2 23  9 52 59.0800000  0  4G 3G19G16G13
  21386024.489    21386027.576    26703510.665 9 -54675792.206 8
  23325341.950    23325347.428   -13631777.507 7  20589178.972 7
  23309640.645    23309644.695   -17272520.258 9  17154601.825 8
  22654662.154    22654666.970    86630296.518 7-120285652.090 8
 90  2 23  9 53 14.0800000  0  4G 3G19G16G13
  21384833.362    21384836.877    26697254.699 9 -54680666.990 7
  23330364.138    23330368.678   -13605390.976 7  20609739.879 6
  23299828.784    23299833.949   -17324079.353 8  17114425.923 8
  22658947.426    22658952.422    86652815.648 8-120268104.723 7
 90  2 23  9 53 29.0800000  0  4G 3G19G16G13
  21383648.844    21383653.314    26691027.867 8 -54685519.063 7
  23335400.831    23335406.330   -13578920.682 8  20630366.079 8
  23290024.517    23290026.565   -17375608.938 9  17074273.050 7
  22663236.785    22663240.362    86675354.359 8-120250542.123 8
 90  2 23  9 53 44.0800000  0  4G 3G19G16G13
  21382470.943    21382473.911    26684830.237 8 -54690348.374 8
  23340452.892    23340458.719   -13552366.746 8  20651057.446 6
  23280224.131    23280228.196   -17427108.679 8  17034143.377 8
  22667528.623    22667534.154    86697912.846 8-120232964.079 8
 90  2 23  9 53 59.0800000  0  4G 3G19G16G13
  21381294.842    21381299.454    26678661.892 7 -54695154.873 8
  23345521.340    23345526.831   -13525729.597 8  20671813.654 7
  23270429.576    23270432.958   -17478578.177 8  16994037.308 8
  22671826.723    22671830.756    86720491.187 8-120215370.577 8
 90  2 23  9 54 14.0800000  0  4G 3G19G16G13
  21380128.295    21380130.740    26672523.060 9 -54699938.397 8
  23350608.330    23350611.499   -13499009.362 7  20692634.604 7
  23260641.231    23260644.642   -17530016.867 9  16953955.242 8
  22676126.496    22676131.241    86743089.308 8-120197761.676 8
 90  2 23  9 54 29.0800000  0  4G 3G19G16G13
  21378966.186    21378969.074    26666413.640 9 -54704698.981 8
  23355708.722    23355711.933   -13472206.609 7  20713519.843 8
  23250858.179    23250862.938   -17581424.397 8  16913897.441 8
  22680429.327    22680435.327    86765707.235 8-120180137.325 7
 90  2 23  9 54 44.0800000  0  4G 3G19G16G13
  21377807.942    21377811.819    26660333.542 8 -54709436.730 7
  23360822.747    23360829.293   -13445321.841 8  20734469.002 7
  23241081.299    23241086.151   -17632800.741 8  16873863.944 8
  22684738.597    22684742.905    86788344.996 8-120162497.514 7
 90  2 23  9 54 59.0800000  0  4G 3G19G16G13
  21376657.343    21376659.599    26654283.105 8 -54714151.361 7
  23365955.694    23365959.604   -13418355.036 8  20755482.078 7
  23231310.734    23231314.752   -17684145.194 9  16833855.319 8
  22689049.915    22689053.017    86811002.944 7-120144841.977 8
 90  2 23  9 55 14.0800000  0  4G 3G19G16G13
  21375510.658    21375516.340    26648262.339 8 -54718842.862 7
  23371101.704    23371106.815   -13391306.810 7  20776558.611 7
  23221547.565    23221550.439   -17735457.706 9  16793871.562 8
  22693364.725    22693369.840    86833681.075 8-120127170.714 8
 90  2 23  9 55 29.0800000  0  4G 3G19G16G13
  21374372.020    21374374.135    26642271.213 8 -54723511.269 7
  23376266.097    23376270.856   -13364177.441 7  20797698.368 7
  23211787.272    23211791.548   -17786737.619 8  16753913.202 9
  22697684.944    22697689.793    86856379.526 8-120109483.624 8
 90  2 23  9 55 44.0800000  0  4G 3G19G16G13
  21373236.186    21373239.500    26636309.732 8 -54728156.586 7
  23381443.322    23381447.912   -13336967.355 8  20818901.016 6
  23202035.398    23202040.335   -17837984.868 8  16713980.310 8
  22702007.693    22702012.183    86879098.093 8-120091780.858 7
 90  2 23  9 55 59.0800000  0  4G 3G19G16G13
  21372107.562    21372110.060    26630378.105 8 -54732778.622 8
  23386636.484    23386640.896   -13309676.548 7  20840166.575 8
  23192291.229    23192295.498   -17889198.845 9  16674073.338 8
  22706333.467    22706339.536    86901837.029 8-120074062.224 8
 90  2 23  9 56 14.0800000  0  4G 3G19G16G13
  21370984.114    21370987.920    26624476.318 9 -54737377.435 7
  23391844.360    23391850.020   -13282305.489 7  20861494.656 7
  23182551.019    23182554.984   -17940379.197 9  16634192.575 8
  22710666.024    22710670.405    86924596.360 8-120056327.691 8
 90  2 23  9 56 29.0800000  0  4G 3G19G16G13
  21369867.002    21369870.191    26618604.377 8 -54741952.962 8
  23397069.446    23397073.554   -13254854.487 9  20882885.048 7
  23172818.277    23172821.790   -17991525.577 8  16594338.277 7
  22715000.714    22715005.944    86947376.252 8-120038577.136 7
 90  2 23  9 56 44.0800000  0  4G 3G19G16G13
  21368754.999    21368758.033    26612762.389 8 -54746505.166 7
  23402308.609    23402312.589   -13227324.074 8  20904337.303 6
  23163091.253    23163096.457   -18042637.748 8  16554510.624 8
  22719340.075    22719344.036    86970176.754 8-120020810.508 9
 90  2 23  9 56 59.0800000  0  4G 3G19G16G13
  21367648.299    21367652.074    26606950.702 9 -54751033.758 7
  23407561.422    23407565.427   -13199714.692 8  20925851.109 7
  23153370.875    23153375.355   -18093715.175 8  16514710.058 8
  22723682.571    22723686.856    86992997.755 8-120003027.930 8
 90  2 23  9 57 14.0800000  0  4G 3G19G16G13
  21366549.753    21366552.309    26601168.915 9 -54755539.023 6
  23412830.946    23412834.854   -13172026.501 8  20947426.317 7
  23143657.576    23143662.337   -18144757.671 8  16474936.703 7
  22728028.785    22728033.640    87015839.506 8-119985229.173 8
 90  2 23  9 57 29.0800000  0  4G 3G19G16G13
  21365453.929    21365457.677    26595417.559 9 -54760020.602 7
  23418114.060    23418118.748   -13144259.558 8  20969062.878 7
  23133952.148    23133955.692   -18195764.806 9  16435190.919 9
  22732378.665    22732383.992    87038701.991 8-119967414.244 8
 90  2 23  9 57 44.0800000  0  4G 3G19G16G13
  21364365.228    21364370.086    26589696.326 8 -54764478.713 7
  23423413.137    23423416.846   -13116414.500 8  20990760.321 6
  23124252.014    23124257.351   -18246736.307 8  16395472.865 8
  22736733.750    22736737.976    87061585.298 8-119949583.100 7
 90  2 23  9 57 59.0800000  0  4G 3G19G16G13
  21363282.849    21363286.225    26584005.456 8 -54768913.169 8
  23428727.079    23428731.870   -13088491.592 8  21012518.419 7
  23114559.854    23114563.574   -18297671.773 8  16355782.931 8
  22741093.318    22741097.411    87084489.684 8-119931735.539 7
 90  2 23  9 58 14.0800000  0  4G 3G19G16G13
  21362206.165    21362209.845    26578345.132 9 -54773323.813 6
  23434054.906    23434059.035   -13060491.246 8  21034336.882 6
  23104874.009    23104877.538   -18348570.561 8  16316121.549 8
  22745456.325    22745459.625    87107415.182 8-119913871.523 8
 90  2 23  9 58 29.0800000  0  4G 3G19G16G13
  21361134.152    21361137.656    26572715.111 9 -54777710.830 7
  23439398.605    23439401.790   -13032414.114 9  21056215.162 7
  23095195.872    23095199.455   -18399432.590 8  16276488.826 8
  22749820.883    22749826.754    87130361.864 8-119895991.029 8
 90  2 23  9 58 44.0800000  0  4G 3G19G16G13
  21360069.546    21360072.461    26567115.603 7 -54782074.082 7
  23444755.955    23444759.157   -13004260.056 9  21078153.367 6
  23085523.842    23085529.366   -18450257.439 8  16236885.058 8
  22754192.551    22754197.407    87153329.623 7-119878094.081 8
 90  2 23  9 58 59.0800000  0  4G 3G19G16G13
  21359009.150    21359012.323    26561546.875 8 -54786413.364 7
  23450127.940    23450131.330   -12976029.369 9  21100151.285 7
  23075859.546    23075864.438   -18501044.776 9  16197310.542 8
  22758567.078    22758570.761    87176318.607 8-119860180.596 8
 90  2 23  9 59 14.0800000  0  4G 3G19G16G13
  21357954.789    21357959.653    26556008.787 9 -54790728.755 7
  23455514.945    23455518.442   -12947722.328 8  21122208.728 8
  23066203.113    23066205.504   -18551794.215 9  16157765.537 8
  22762946.148    22762949.448    87199329.118 8-119842250.342 8
 90  2 23  9 59 29.0800000  0  4G 3G19G16G13
  21356906.530    21356910.489    26550501.575 9 -54795020.081 6
  23460916.195    23460921.229   -12919339.559 8  21144325.153 8
  23056553.042    23056555.447   -18602505.326 9  16118250.405 8
  22767329.089    22767332.938    87222361.104 8-119824303.350 7
 90  2 23  9 59 44.0800000  0  4G 3G19G16G13
  21355865.245    21355868.819    26545025.012 9 -54799287.534 7
  23466330.283    23466335.138   -12890881.578 8  21166500.198 7
  23046909.571    23046913.689   -18653177.805 8  16078765.370 7
  22771714.936    22771719.977    87245414.373 8-119806339.782 8
 90  2 23  9 59 59.0800000  0  4G 3G19G16G13
  21354828.541    21354832.750    26539579.522 9 -54803530.782 7
  23471761.251    23471763.736   -12862348.467 9  21188733.785 7
  23037274.898    23037278.418   -18703811.329 9  16039310.689 7
  22776106.462    22776110.233    87268489.196 8-119788359.410 8
 90  2 23 10  0 14.0800000  0  4G 3G19G16G13
  21353799.057    21353802.015    26534164.991 8 -54807749.889 8
  23477204.491    23477208.493   -12833740.662 8  21211025.562 7
  23027647.835    23027650.579   -18754405.353 9  15999886.801 8
  22780502.035    22780506.083    87291585.659 8-119770362.180 7
 90  2 23 10  0 29.0800000  0  4G 3G19G16G13
  21352775.374    21352777.966    26528781.501 8 -54811944.816 8
  23482662.938    23482667.643   -12805058.368 8  21233375.388 7
  23018027.155    23018030.738   -18804959.654 8  15960493.843 7
  22784901.934    22784906.090    87314703.972 8-119752347.916 7
 90  2 23 10  0 44.0800000  0  4G 3G19G16G13
  21351755.564    21351758.909    26523429.318 7 -54816115.342 8
  23488134.247    23488139.255   -12776301.908 8  21255783.017 7
  23008414.125    23008418.153   -18855473.876 8  15921132.138 8
  22789304.987    22789309.752    87337844.274 8-119734316.524 8
 90  2 23 10  0 59.0800000  0  4G 3G19G16G13
  21350743.725    21350747.136    26518108.246 8 -54820261.651 7
  23493621.158    23493625.742   -12747471.822 8  21278247.992 6
  22998809.034    22998812.912   -18905947.673 8  15881801.913 8
  22793712.104    22793716.387    87361006.569 8-119716267.996 8
 90  2 23 10  1 14.0800000  0  4G 3G19G16G13
  21349735.847    21349740.436    26512818.435 9 -54824383.584 7
  23499122.097    23499124.507   -12718568.346 7  21300770.184 7
  22989211.800    22989214.757   -18956380.643 8  15842503.515 8
  22798124.642    22798128.524    87384190.923 9-119698202.262 8
 90  2 23 10  1 29.0800000  0  4G 3G19G16G13
  21348736.032    21348738.793    26507560.029 8 -54828481.027 7
  23504635.223    23504639.848   -12689591.707 8  21323349.349 7
  22979622.906    22979627.389   -19006772.519 8  15803237.135 9
  22802540.331    22802545.784    87407397.195 8-119680119.463 8
 90  2 23 10  1 44.0800000  0  4G 3G19G16G13
  21347741.456    21347745.062    26502333.018 9 -54832554.016 8
  23510163.230    23510167.317   -12660542.685 7  21345984.932 7
  22970041.546    22970044.767   -19057122.844 8  15764003.136 8
  22806960.269    22806965.853    87430625.508 9-119662019.492 8
 90  2 23 10  1 59.0800000  0  4G 3G19G16G13
  21346752.430    21346756.488    26497137.530 9 -54836602.456 6
  23515704.717    23515708.560   -12631421.372 7  21368676.874 7
  22960467.859    22960471.561   -19107431.326 9  15724801.744 8
  22811384.128    22811388.124    87453876.079 8-119643902.166 7
 90  2 23 10  2 14.0800000  0  4G 3G19G16G13
  21345771.510    21345774.043    26491973.659 8 -54840626.241 7
  23521258.835    23521263.646   -12602228.067 8  21391424.875 7
  22950901.506    22950906.036   -19157697.493 8  15685633.331 8
  22815813.070    22815818.357    87477149.088 8-119625767.381 8
 90  2 23 10  2 29.0800000  0  4G 3G19G16G13
  21344794.931    21344796.036    26486841.402 8 -54844625.419 6
  23526828.608    23526832.846   -12572963.178 8  21414228.667 7
  22941344.816    22941348.600   -19207921.131 8  15646498.054 8
  22820247.123    22820250.691    87500444.422 8-119607615.166 9
 90  2 23 10  2 44.0800000  0  4G 3G19G16G13
  21343823.859    21343826.425    26481741.075 8 -54848599.700 7
  23532411.836    23532415.504   -12543626.977 8  21437088.035 8
  22931795.032    22931799.097   -19258101.868 8  15607396.201 7
  22824683.660    22824688.020    87523762.287 8-119589445.416 7
 90  2 23 10  2 59.0800000  0  4G 3G19G16G13
  21342860.043    21342862.187    26476672.560 8 -54852549.211 7
  23538007.515    23538012.600   -12514219.708 7  21460002.766 8
  22922254.053    22922258.911   -19308239.133 9  15568328.225 8
  22829125.004    22829129.193    87547102.743 8-119571258.049 8
 90  2 23 10  3 14.0800000  0  4G 3G19G16G13
  21341900.439    21341902.786    26471635.871 8 -54856473.894 8
  23543616.758    23543620.671   -12484742.012 8  21482972.396 8
  22912723.322    22912727.543   -19358332.623 9  15529294.359 8
  22833570.978    22833575.218    87570465.781 8-119553053.095 7
 90  2 23 10  3 29.0800000  0  4G 3G19G16G13
  21340947.849    21340949.951    26466631.392 9 -54860373.498 7
  23549239.681    23549243.772   -12455194.254 8  21505996.613 7
  22903199.707    22903202.128   -19408382.125 8  15490294.766 7
  22838021.214    22838024.641    87593851.560 9-119534830.424 7
 90  2 23 10  3 44.0800000  0  4G 3G19G16G13
  21340002.296    21340004.043    26461658.862 9 -54864248.189 7
  23554874.801    23554880.258   -12425576.632 8  21529075.247 8
  22893683.663    22893688.168   -19458387.135 8  15451329.832 8
  22842475.210    22842479.646    87617260.215 8-119516589.902 8
 90  2 23 10  3 59.0800000  0  4G 3G19G16G13
  21339062.580    21339065.003    26456718.517 9 -54868097.818 6
  23560525.208    23560528.809   -12395889.307 8  21552208.218 8
  22884175.205    22884179.739   -19508347.397 9  15412399.780 8
  22846933.996    22846939.907    87640691.549 8-119498331.746 7
 90  2 23 10  4 14.0800000  0  4G 3G19G16G13
  21338127.618    21338130.264    26451810.509 8 -54871922.217 7
  23566188.117    23566192.361   -12366132.831 8  21575395.070 7
  22874676.698    22874681.961   -19558262.453 9  15373504.956 8
  22851397.831    22851401.901    87664145.768 8-119480055.741 8
 90  2 23 10  4 29.0800000  0  4G 3G19G16G13
  21337200.181    21337202.973    26446934.955 8 -54875721.359 8
  23571864.156    23571867.335   -12336307.453 8  21598635.626 7
  22865187.080    22865191.546   -19608131.971 8  15334645.611 8
  22855864.579    22855869.742    87687623.133 7-119461761.704 8
 90  2 23 10  4 44.0800000  0  4G 3G19G16G13
  21336278.013    21336280.555    26442091.839 8 -54879495.220 8
  23577550.817    23577556.121   -12306413.592 7  21621929.507 7
  22855707.194    22855710.740   -19657955.672 8  15295821.962 7
  22860335.909    22860342.003    87711123.606 7-119443449.654 9
 90  2 23 10  4 59.0800000  0  4G 3G19G16G13
  21335362.562    21335364.423    26437281.142 8 -54883243.824 7
  23583253.632    23583257.907   -12276451.732 8  21645276.403 7
  22846233.651    22846237.825   -19707733.065 8  15257034.389 8
  22864813.071    22864819.250    87734647.362 8-119425119.483 7
 90  2 23 10  5 14.0800000  0  4G 3G19G16G13
  21334452.531    21334457.010    26432503.001 8 -54886967.053 7
  23588968.121    23588972.247   -12246422.116 8  21668676.096 8
  22836771.076    22836775.813   -19757463.927 8  15218283.082 8
  22869293.660    22869299.994    87758194.363 8-119406771.174 7
 90  2 23 10  5 29.0800000  0  4G 3G19G16G13
  21333550.421    21333553.937    26427757.565 9 -54890664.801 6
  23594694.609    23594700.129   -12216325.155 8  21692128.258 6
  22827315.781    22827318.969   -19807147.753 8  15179568.443 8
  22873780.107    22873784.086    87781764.816 8-119388404.593 9
 90  2 23 10  5 44.0800000  0  4G 3G19G16G13
  21332654.093    21332657.624    26423044.936 9 -54894336.967 8
  23600434.335    23600438.461   -12186161.087 8  21715632.733 7
  22817870.276    22817874.140   -19856784.180 9  15140890.732 8
  22878269.238    22878272.699    87805358.731 7-119370019.708 7
 90  2 23 10  5 59.0800000  0  4G 3G19G16G13
  21331762.859    21331765.677    26418365.231 8 -54897983.494 7
  23606187.295    23606192.233   -12155930.048 7  21739189.358 7
  22808433.440    22808438.650   -19906372.692 8  15102250.336 8
  22882763.157    22882768.583    87828976.162 7-119351616.547 8
 90  2 23 10  6 14.0800000  0  4G 3G19G16G13
  21330878.180    21330882.924    26413718.590 9 -54901604.246 7
  23611952.976    23611956.737   -12125632.699 8  21762797.671 8
  22799006.888    22799009.918   -19955913.422 8  15063647.207 6
  22887262.355    22887267.978    87852617.139 7-119333195.000 8
 90  2 23 10  6 29.0800000  0  4G 3G19G16G13
  21329999.510    21330004.070    26409104.962 8 -54905199.291 7
  23617732.018    23617736.016   -12095269.444 8  21786457.331 8
  22789587.758    22789593.860   -20005405.701 9  15025081.793 8
  22891764.279    22891770.757    87876281.891 7-119314754.951 8
 90  2 23 10  6 44.0800000  0  4G 3G19G16G13
  21329129.081    21329131.768    26404524.384 8 -54908768.572 7
  23623520.344    23623525.741   -12064840.536 8  21810168.138 8
  22780179.072    22780183.356   -20054849.220 8  14986554.403 8
  22896273.429    22896278.525    87899970.518 8-119296296.295 8
 90  2 23 10  6 59.0800000  0  4G 3G19G16G13
  21328264.234    21328267.062    26399976.991 7 -54912311.991 7
  23629324.306    23629328.016   -12034346.488 8  21833929.738 8
  22770781.120    22770784.869   -20104243.450 9  14948065.407 8
  22900784.536    22900790.520    87923683.050 7-119277819.001 8
 90  2 23 10  7 14.0800000  0  4G 3G19G16G13
  21327405.423    21327407.162    26395462.956 8 -54915829.419 8
  23635138.675    23635144.833   -12003787.571 7  21857741.862 7
  22761390.931    22761394.730   -20153588.350 9  14909614.859 7
  22905302.275    22905308.070    87947419.521 8-119259323.036 8
 90  2 23 10  7 29.0800000  0  4G 3G19G16G13
  21326551.478    21326554.710    26390982.457 9 -54919320.715 7
  23640967.146    23640970.707   -11973164.149 8  21881604.266 6
  22752009.902    22752013.961   -20202883.293 9  14871203.237 8
  22909824.389    22909828.655    87971179.847 8-119240808.520 8
 90  2 23 10  7 44.0800000  0  4G 3G19G16G13
  21325706.459    21325709.468    26386535.261 9 -54922786.082 7
  23646806.608    23646810.885   -11942476.592 8  21905516.640 7
  22742637.782    22742643.115   -20252128.007 8  14832830.749 7
  22914349.980    22914355.172    87994964.386 8-119222275.113 7
 90  2 23 10  7 59.0800000  0  4G 3G19G16G13
  21324865.991    21324869.785    26382121.705 8 -54926225.215 7
  23652659.135    23652663.241   -11911725.053 8  21929478.868 7
  22733277.777    22733282.396   -20301322.162 9  14794497.659 8
  22918879.583    22918887.270    88018773.105 7-119203722.878 8
 90  2 23 10  8 14.0800000  0  4G 3G19G16G13
  21324032.916    21324035.428    26377741.753 8 -54929638.167 7
  23658521.605    23658525.524   -11880910.015 7  21953490.570 7
  22723926.817    22723930.465   -20350465.448 8  14756204.210 8
  22923415.957    22923420.445    88042606.126 7-119185151.717 7
 90  2 23 10  8 29.0800000  0  4G 3G19G16G13
  21323204.184    21323209.148    26373395.800 8 -54933024.626 8
  23664398.208    23664403.616   -11850031.929 8  21977551.393 8
  22714584.048    22714588.090   -20399557.270 9  14717950.861 7
  22927955.771    22927961.743    88066463.522 8-119166561.558 8
 90  2 23 10  8 44.0800000  0  4G 3G19G16G13
  21322385.666    21322388.125    26369083.728 8 -54936384.676 7
  23670286.091    23670290.878   -11819091.077 8  22001661.158 6
  22705251.786    22705257.075   -20448597.373 9  14679737.808 8
  22932501.146    22932506.039    88090345.412 8-119147952.290 8
 90  2 23 10  8 59.0800000  0  4G 3G19G16G13
  21321570.820    21321572.368    26364805.500 8 -54939718.334 6
  23676187.098    23676190.504   -11788087.518 9  22025819.781 7
  22695929.910    22695934.361   -20497585.381 8  14641565.353 8
  22937050.070    22937054.298    88114252.091 7-119129323.735 8
 90  2 23 10  9 14.0800000  0  4G 3G19G16G13
  21320763.608    21320765.923    26360561.415 8 -54943025.432 7
  23682097.819    23682101.728   -11757021.843 8  22050026.764 8
  22686618.919    22686621.743   -20546520.984 9  14603433.746 8
  22941603.672    22941608.337    88138183.257 8-119110676.094 7
 90  2 23 10  9 29.0800000  0  4G 3G19G16G13
  21319962.889    21319965.621    26356351.408 8 -54946305.950 7
  23688020.898    23688025.455   -11725894.700 9  22074281.664 8
  22677315.644    22677319.237   -20595403.973 8  14565343.122 9
  22946162.452    22946166.850    88162139.064 7-119092009.226 7
 90  2 23 10  9 44.0800000  0  4G 3G19G16G13
  21319169.532    21319171.343    26352175.752 8 -54949559.719 7
  23693956.882    23693960.494   -11694706.285 8  22098584.319 7
  22668024.151    22668027.445   -20644233.816 9  14527293.904 7
  22950725.406    22950730.251    88186119.634 7-119073323.062 8
 90  2 23 10  9 59.0800000  0  4G 3G19G16G13
  21318380.756    21318380.760    26348034.407 9 -54952786.718 6
  23699901.951    23699907.283   -11663456.711 8  22122934.619 8
  22658741.684    22658745.774   -20693010.073 9  14489286.440 8
  22955291.988    22955298.379    88210125.312 7-119054617.352 8
 90  2 23 10 10 14.0800000  0  4G 3G19G16G13
  21317598.324    21317601.064    26343927.555 8 -54955986.900 7
  23705860.476    23705864.775   -11632146.498 8  22147332.169 6
  22649470.750    22649474.666   -20741732.409 9  14451321.005 7
  22959866.423    22959870.828    88234155.962 8-119035892.191 8
 90  2 23 10 10 29.0800000  0  4G 3G19G16G13
  21316823.395    21316825.984    26339855.209 9 -54959160.162 7
  23711831.330    23711835.425   -11600776.191 8  22171776.541 8
  22640209.010    22640212.350   -20790400.534 9  14413397.820 8
  22964443.005    22964449.460    88258211.812 7-119017147.395 7
 90  2 23 10 10 44.0800000  0  4G 3G19G16G13
  21316055.592    21316057.563    26335817.612 8 -54962306.329 7
  23717810.139    23717815.768   -11569345.945 8  22196267.634 7
  22630958.710    22630962.106   -20839014.107 8  14375517.148 9
  22969026.722    22969032.379    88282292.866 8-118998382.960 8
 90  2 23 10 10 59.0800000  0  4G 3G19G16G13
  21315293.313    21315295.468    26331814.694 9 -54965425.496 8
  23723803.738    23723807.391   -11537856.085 8  22220805.196 8
  22621717.642    22621721.732   -20887572.663 9  14337679.316 8
  22973614.704    22973619.158    88306399.137 8-118979598.834 8
 90  2 23 10 11 14.0800000  0  4G 3G19G16G13
  21314538.732    21314540.737    26327846.711 8 -54968517.424 8
  23729806.450    23729811.960   -11506306.857 7  22245388.970 8
  22612488.176    22612491.918   -20936075.908 8  14299884.594 8
  22978207.475    22978210.679    88330530.857 8-118960794.913 7
 90  2 23 10 11 29.0800000  0  4G 3G19G16G13
  21313789.271    21313793.804    26323913.597 9 -54971582.224 7
  23735821.989    23735827.815   -11474699.114 7  22270018.355 8
  22603267.648    22603271.827   -20984523.710 9  14262133.084 9
  22982804.144    22982807.094    88354687.957 8-118941971.211 7
 90  2 23 10 11 44.0800000  0  4G 3G19G16G13
  21313047.712    21313051.936    26320015.510 9 -54974619.680 8
  23741846.868    23741853.345   -11443033.167 7  22294693.108 8
  22594060.037    22594064.456   -21032915.446 8  14224425.269 8
  22987405.083    22987409.565    88378870.467 7-118923127.721 8
 90  2 23 10 11 59.0800000  0  4G 3G19G16G13
  21312311.764    21312316.937    26316152.581 8 -54977629.753 7
  23747884.380    23747889.449   -11411309.020 7  22319413.206 7
  22584862.039    22584865.765   -21081250.654 8  14186761.483 8
  22992011.508    22992017.116    88403078.496 7-118904264.329 8
 90  2 23 10 12 14.0800000  0  4G 3G19G16G13
  21311584.681    21311587.288    26312324.736 9 -54980612.497 7
  23753931.879    23753936.939   -11379526.827 8  22344178.526 7
  22575674.347    22575679.141   -21129529.254 9  14149141.816 7
  22996621.739    22996628.772    88427312.265 7-118885380.904 8
 90  2 23 10 12 29.0800000  0  4G 3G19G16G13
  21310862.240    21310864.983    26308532.279 9 -54983567.660 7
  23759992.607    23759996.619   -11347687.392 8  22368988.475 8
  22566498.321    22566502.847   -21177750.645 9  14111566.721 8
  23001239.290    23001245.097    88451571.900 7-118866477.305 8
 90  2 23 10 12 44.0800000  0  4G 3G19G16G13
  21310146.751    21310150.731    26304775.410 9 -54986495.084 7
  23766061.822    23766065.402   -11315790.634 8  22393843.070 8
  22557332.681    22557336.487   -21225914.427 9  14074036.521 8
  23005860.081    23005865.127    88475857.441 8-118847553.508 8
 90  2 23 10 12 59.0800000  0  4G 3G19G16G13
  21309439.533    21309442.190    26301054.025 8 -54989394.853 7
  23772141.768    23772146.577   -11283837.174 8  22418741.860 7
  22548178.499    22548182.216   -21274020.586 9  14036551.217 8
  23010487.321    23010493.228    88500168.883 8-118828609.546 8
 90  2 23 10 13 14.0800000  0  4G 3G19G16G13
  21308737.666    21308742.558    26297368.395 8 -54992266.781 8
  23778233.043    23778236.595   -11251827.686 8  22443684.308 7
  22539035.040    22539040.322   -21322068.466 9  13999111.335 8
  23015117.286    23015124.389    88524506.190 8-118809645.409 8
 90  2 23 10 13 29.0800000  0  4G 3G19G16G13
  21308044.206    21308047.399    26293718.426 8 -54995110.909 8
  23784335.009    23784339.344   -11219762.259 7  22468670.339 7
  22529903.639    22529906.989   -21370057.904 8  13961716.993 8
  23019753.512    23019759.267    88548869.853 7-118790660.747 8
 90  2 23 10 13 44.0800000  0  4G 3G19G16G13
  21307355.739    21307359.009    26290104.312 8 -54997927.101 7
  23790447.581    23790450.975   -11187641.229 8  22493699.704 7
  22520782.512    22520785.346   -21417988.338 8  13924368.619 8
  23024396.790    23024401.394    88573259.840 7-118771655.568 7
 90  2 23 10 13 59.0800000  0  4G 3G19G16G13
  21306674.764    21306678.869    26286526.217 8 -55000715.240 8
  23796570.599    23796574.837   -11155465.045 8  22518772.061 7
  22511672.604    22511676.803   -21465859.504 8  13887066.429 8
  23029041.827    23029047.831    88597676.007 7-118752630.012 7
 90  2 23 10 14 14.0800000  0  4G 3G19G16G13
  21306001.001    21306004.649    26282984.185 8 -55003475.274 7
  23802704.480    23802706.359   -11123234.039 8  22543887.126 6
  22502574.476    22502578.928   -21513671.062 8  13849810.687 8
  23033692.105    23033699.447    88622118.552 6-118733583.893 8
 90  2 23 10 14 29.0800000  0  4G 3G19G16G13
  21305333.792    21305337.667    26279478.317 9 -55006207.106 8
  23808847.158    23808851.886   -11090948.436 8  22569044.737 7
  22493487.328    22493491.519   -21561422.480 9  13812601.804 8
  23038349.082    23038355.094    88646587.606 7-118714517.114 8
 90  2 23 10 14 44.0800000  0  4G 3G19G16G13
  21304673.393    21304676.479    26276008.967 9 -55008910.500 8
  23815000.786    23815005.505   -11058608.643 8  22594244.560 7
  22484412.745    22484415.478   -21609113.642 9  13775439.882 8
  23043012.203    23043016.738    88671083.353 7-118695429.524 8
 90  2 23 10 14 59.0800000  0  4G 3G19G16G13
  21304020.352    21304023.541    26272575.937 9 -55011585.594 7
  23821164.791    23821170.735   -11026215.155 8  22619486.215 7
  22475348.054    22475352.976   -21656744.151 9  13738325.201 8
  23047677.474    23047682.876    88695605.624 7-118676321.277 8
 90  2 23 10 15 14.0800000  0  4G 3G19G16G13
  21303374.491    21303377.348    26269179.286 8 -55014232.334 8
  23827340.609    23827344.730   -10993768.472 7  22644769.336 8
  22466297.012    22466300.377   -21704313.665 9  13701258.079 8
  23052348.541    23052355.126    88720154.462 7-118657192.332 8
 90  2 23 10 15 29.0800000  0  4G 3G19G16G13
  21302733.984    21302738.469    26265819.323 8 -55016850.496 8
  23833524.327    23833529.472   -10961268.890 8  22670093.689 8
  22457256.515    22457259.610   -21751821.715 9  13664238.826 7
  23057025.914    23057030.583    88744730.386 8-118638042.275 7
 90  2 23 10 15 44.0800000  0  4G 3G19G16G13
  21302101.000    21302105.133    26262496.018 8 -55019440.068 7
  23839717.779    23839723.094   -10928716.422 7  22695459.219 8
  22448227.595    22448231.238   -21799267.968 8  13627267.730 8
  23061706.600    23061712.810    88769333.413 7-118618871.108 7
 90  2 23 10 15 59.0800000  0  4G 3G19G16G13
  21301476.573    21301479.663    26259209.534 8 -55022000.970 7
  23845922.989    23845928.793   -10896111.814 7  22720865.388 8
  22439210.285    22439214.267   -21846652.031 8  13590345.095 7
  23066393.620    23066398.849    88793963.410 8-118599678.895 8
 90  2 23 10 16 14.0800000  0  4G 3G19G16G13
  21300859.447    21300861.290    26255960.001 8 -55024533.069 8
  23852137.666    23852142.854   -10863455.260 8  22746312.042 6
  22430206.168    22430208.887   -21893973.640 8  13553471.130 7
  23071087.131    23071091.860    88818620.384 8-118580465.695 8
 90  2 23 10 16 29.0800000  0  4G 3G19G16G13
  21300246.753    21300249.916    26252747.607 8 -55027036.244 8
  23858362.234    23858367.743   -10830747.201 8  22771798.837 7
  22421213.338    22421215.415   -21941232.426 9  13516646.129 8
  23075783.372    23075789.531    88843304.477 8-118561231.347 8
 90  2 23 10 16 44.0800000  0  4G 3G19G16G13
  21299642.968    21299645.034    26249572.358 8 -55029510.462 7
  23864595.838    23864600.380   -10797987.928 8  22797325.542 8
  22412231.535    22412234.939   -21988427.870 8  13479870.471 8
  23080484.941    23080491.510    88868016.137 7-118541975.521 8
 90  2 23 10 16 59.0800000  0  4G 3G19G16G13
  21299045.180    21299049.469    26246434.486 8 -55031955.564 6
  23870838.143    23870844.313   -10765177.860 7  22822891.816 8
  22403262.124    22403266.274   -22035559.778 8  13443144.313 7
  23085193.638    23085198.953    88892755.167 8-118522698.387 7
 90  2 23 10 17 14.0800000  0  4G 3G19G16G13
  21298455.500    21298459.922    26243333.969 8 -55034371.565 8
  23877092.971    23877096.558   -10732317.392 8  22848497.347 7
  22394306.201    22394310.941   -22082627.859 9  13406467.909 8
  23089908.106    23089911.485    88917521.566 8-118503399.886 8
 90  2 23 10 17 29.0800000  0  4G 3G19G16G13
  21297872.315    21297876.490    26240270.918 8 -55036758.359 8
  23883354.965    23883359.770   -10699406.504 8  22874142.180 7
  22385361.545    22385365.065   -22129631.568 9  13369841.659 7
  23094625.048    23094630.252    88942315.608 8-118484079.872 8
 90  2 23 10 17 44.0800000  0  4G 3G19G16G13
  21297298.028    21297300.266    26237245.383 8 -55039115.918 8
  23889628.121    23889631.492   -10666445.999 7  22899825.680 7
  22376429.002    22376433.016   -22176570.603 8  13333265.801 6
  23099347.445    23099354.588    88967137.198 8-118464738.411 8
 90  2 23 10 17 59.0800000  0  4G 3G19G16G13
  21296729.067    21296731.238    26234257.538 9 -55041444.105 8
  23895908.597    23895912.892   -10633436.125 7  22925547.671 7
  22367509.912    22367513.084   -22223444.688 8  13296740.550 7
  23104077.297    23104082.488    88991986.423 8-118445375.387 8
 90  2 23 10 18 14.0800000  0  4G 3G19G16G13
  21296167.913    21296170.506    26231307.652 8 -55043742.735 7
  23902200.389    23902205.669   -10600377.092 8  22951307.912 7
  22358601.841    22358605.035   -22270253.470 9  13260266.197 8
  23108811.322    23108815.253    89016863.608 8-118425990.565 7
 90  2 23 10 18 29.0800000  0  4G 3G19G16G13
  21295612.262    21295617.075    26228395.825 8 -55046011.685 7
  23908500.932    23908504.861   -10567269.414 8  22977106.093 7
  22349706.443    22349710.728   -22316996.422 9  13223843.130 8
  23113551.665    23113555.108    89041768.756 8-118406583.965 8
 90  2 23 10 18 44.0800000  0  4G 3G19G16G13
  21295065.965    21295069.870    26225522.245 9 -55048250.851 7
  23914810.066    23914814.276   -10534113.328 7  23002941.999 7
  22340824.711    22340829.481   -22363673.222 8  13187471.623 8
  23118295.283    23118301.688    89066702.189 8-118387155.338 8
 90  2 23 10 18 59.0800000  0  4G 3G19G16G13
  21294526.762    21294530.286    26222686.660 9 -55050460.404 8
  23921128.199    23921132.849   -10500909.523 8  23028815.083 7
  22331954.775    22331959.083   -22410283.667 9  13151151.813 8
  23123045.571    23123050.639    89091663.620 8-118367704.879 7
 90  2 23 10 19 14.0800000  0  4G 3G19G16G13
  21293994.263    21293998.412    26219889.372 9 -55052640.115 7
  23927456.078    23927460.194   -10467658.136 8  23054725.239 7
  22323097.816    22323101.111   -22456827.322 8  13114884.064 7
  23127800.433    23127805.849    89116652.975 8-118348232.662 7
 90  2 23 10 19 29.0800000  0  4G 3G19G16G13
  21293469.428    21293472.288    26217130.586 9 -55054789.814 7
  23933793.493    23933795.789   -10434359.568 8  23080672.174 7
  22314254.249    22314257.608   -22503303.962 8  13078668.492 8
  23132561.821    23132566.517    89141670.627 8-118328738.396 8
 90  2 23 10 19 44.0800000  0  4G 3G19G16G13
  21292952.836    21292955.212    26214410.295 8 -55056909.522 7
  23940139.414    23940141.450   -10401013.944 8  23106655.749 6
  22305422.225    22305425.035   -22549713.083 9  13042505.574 8
  23137327.840    23137334.189    89166716.581 8-118309222.093 8
 90  2 23 10 19 59.0800000  0  4G 3G19G16G13
  21292441.251    21292444.346    26211728.669 8 -55058999.096 7
  23946493.278    23946496.004   -10367621.883 8  23132675.532 7
  22296604.128    22296608.336   -22596054.203 9  13006395.604 7
  23142099.873    23142104.592    89191791.220 8-118289683.414 8
 90  2 23 10 20 14.0800000  0  4G 3G19G16G13
  21291938.632    21291941.361    26209085.682 9 -55061058.566 7
  23952855.295    23952859.773   -10334183.874 8  23158731.122 7
  22287799.224    22287802.162   -22642327.285 8  12970338.681 8
  23146876.825    23146881.978    89216894.372 8-118270122.533 8
 90  2 23 10 20 29.0800000  0  4G 3G19G16G13
  21291442.188    21291445.975    26206481.712 8 -55063087.647 7
  23959227.349    23959230.466   -10300700.425 8  23184822.118 7
  22279007.219    22279010.094   -22688531.809 9  12934335.178 8
  23151659.714    23151663.853    89242026.055 8-118250539.418 7
 90  2 23 10 20 44.0800000  0  4G 3G19G16G13
  21290953.873    21290958.960    26203916.650 8 -55065086.395 7
  23965606.484    23965611.790   -10267171.713 7  23210948.367 6
  22270227.547    22270231.618   -22734667.437 9  12898385.344 8
  23156447.440    23156452.759    89267186.557 9-118230933.857 8
 90  2 23 10 20 59.0800000  0  4G 3G19G16G13
  21290473.824    21290478.318    26201390.753 9 -55067054.631 7
  23971995.521    23971999.668   -10233597.890 9  23237109.782 8
  22261460.962    22261465.054   -22780733.766 8  12862489.532 7
  23161240.685    23161243.558    89292375.774 8-118211305.888 7
 90  2 23 10 21 14.0800000  0  4G 3G19G16G13
  21290002.072    21290005.527    26198904.040 8 -55068992.326 6
  23978393.830    23978397.250   -10199979.512 7  23263305.905 7
  22252707.259    22252710.730   -22826730.498 8  12826647.929 7
  23166038.748    23166043.381    89317593.863 7-118191655.441 8
 90  2 23 10 21 29.0800000  0  4G 3G19G16G13
  21289535.116    21289538.000    26196456.868 9 -55070899.211 8
  23984799.289    23984804.054   -10166316.786 8  23289536.589 7
  22243968.282    22243971.670   -22872657.279 8  12790860.845 8
  23170843.775    23170848.309    89342841.010 8-118171982.353 8
 90  2 23 10 21 44.0800000  0  4G 3G19G16G13
  21289077.874    21289080.875    26194049.060 9 -55072775.419 7
  23991214.409    23991218.261   -10132610.124 8  23315801.525 7
  22235242.758    22235244.153   -22918513.768 9  12755128.520 6
  23175653.266    23175658.606    89368117.347 8-118152286.531 8
 90  2 23 10 21 59.0800000  0  4G 3G19G16G13
  21288627.336    21288631.551    26191680.964 9 -55074620.697 8
  23997635.435    23997640.255   -10098859.920 8  23342100.374 7
  22226529.527    22226532.419   -22964299.521 8  12719451.333 8
  23180468.379    23180473.231    89393422.860 7-118132567.964 9
 90  2 23 10 22 14.0800000  0  4G 3G19G16G13
  21288183.234    21288185.978    26189352.603 8 -55076435.010 8
  24004066.386    24004071.563   -10065066.702 7  23368432.742 7
  22217830.159    22217835.030   -23010014.312 9  12683829.429 7
  23185288.239    23185294.903    89418757.641 9-118112826.608 8
 90  2 23 10 22 29.0800000  0  4G 3G19G16G13
  21287747.975    21287752.324    26187063.989 8 -55078218.348 7
  24010505.307    24010509.599   -10031230.715 9  23394798.424 8
  22209144.365    22209148.648   -23055657.630 9  12648263.219 8
  23190115.083    23190121.770    89444121.859 8-118093062.296 8
 90  2 23 10 22 44.0800000  0  4G 3G19G16G13
  21287320.504    21287324.121    26184815.411 8 -55079970.483 8
  24016951.769    24016957.592    -9997352.374 8  23421197.123 7
  22200472.671    22200475.921   -23101229.281 9  12612752.850 8
  23194948.763    23194952.577    89469515.589 8-118073274.982 8
 90  2 23 10 22 59.0800000  0  4G 3G19G16G13
  21286898.696    21286903.360    26182606.841 9 -55081691.465 6
  24023407.538    24023411.390    -9963432.061 8  23447628.528 7
  22191814.657    22191819.294   -23146728.841 9  12577298.639 8
  23199786.758    23199792.208    89494938.666 8-118053464.820 7
 90  2 23 10 23 14.0800000  0  4G 3G19G16G13
  21286487.878    21286490.908    26180438.474 9 -55083381.080 7
  24029870.026    24029873.636    -9929470.153 7  23474092.333 6
  22183169.883    22183173.209   -23192156.093 9  12541900.821 7
  23204628.721    23204634.704    89520391.215 7-118033631.680 8
 90  2 23 10 23 29.0800000  0  4G 3G19G16G13
  21286082.985    21286085.153    26178310.618 9 -55085039.143 8
  24036340.099    24036344.979    -9895466.870 8  23500588.387 7
  22174539.436    22174543.773   -23237510.596 9  12506559.642 8
  23209478.434    23209483.014    89545873.608 7-118013775.292 8
 90  2 23 10 23 44.0800000  0  4G 3G19G16G13
  21285685.275    21285687.162    26176223.231 8 -55086665.678 7
  24042819.107    24042823.455    -9861422.746 8  23527116.265 7
  22165921.612    22165926.269   -23282791.811 9  12471275.610 7
  23214333.302    23214340.306    89571385.783 6-117993895.698 8
 90  2 23 10 23 59.0800000  0  4G 3G19G16G13
  21285295.860    21285298.744    26174176.515 8 -55088260.534 8
  24049304.732    24049310.223    -9827337.994 7  23553675.809 8
  22157318.552    22157322.165   -23327999.460 9  12436048.872 7
  23219194.964    23219199.422    89596927.813 8-117973992.827 7
 90  2 23 10 24 14.0800000  0  4G 3G19G16G13
  21284914.466    21284918.139    26172170.427 9 -55089823.712 8
  24055797.259    24055803.763    -9793213.143 6  23580266.580 7
  22148730.587    22148733.941   -23373133.408 9  12400879.567 8
  23224061.151    23224064.923    89622499.641 7-117954066.733 8
 90  2 23 10 24 29.0800000  0  4G 3G19G16G13
  21284539.338    21284541.897    26170205.142 9 -55091355.101 7
  24062300.436    24062305.139    -9759048.522 7  23606888.340 7
  22140155.117    22140159.253   -23418193.266 9  12365768.005 7
  23228932.070    23228937.326    89648101.700 7-117934117.086 9
 90  2 23 10 24 44.0800000  0  4G 3G19G16G13
  21284174.021    21284175.609    26168280.769 8 -55092854.629 7
  24068808.435    24068813.168    -9724844.353 8  23633540.924 8
  22131595.653    22131598.823   -23463178.501 9  12330714.584 7
  23233810.446    23233815.171    89673733.902 7-117914143.952 8
 90  2 23 10 24 59.0800000  0  4G 3G19G16G13
  21283815.003    21283818.289    26166397.449 9 -55094322.143 7
  24075326.197    24075329.621    -9690601.129 8  23660223.930 7
  22123049.758    22123053.054   -23508088.890 9  12295719.504 7
  23238693.035    23238698.019    89699396.223 7-117894147.374 8
 90  2 23 10 25 14.0800000  0  4G 3G19G16G13
  21283464.998    21283468.588    26164555.448 8 -55095757.468 8
  24081848.814    24081852.925    -9656319.299 8  23686937.043 8
  22114517.425    22114521.762   -23552924.170 9  12260782.922 7
  23243581.649    23243588.128    89725088.883 8-117874127.159 8
 90  2 23 10 25 29.0800000  0  4G 3G19G16G13
  21283121.551    21283125.137    26162754.808 9 -55097160.583 7
  24088379.689    24088383.991    -9621998.967 8  23713680.129 7
  22105999.545    22106004.228   -23597683.892 8  12225905.241 8
  23248476.945    23248483.557    89750811.940 7-117854083.247 8
 90  2 23 10 25 44.0800000  0  4G 3G19G16G13
  21282786.745    21282790.118    26160995.531 8 -55098531.447 8
  24094917.244    24094921.291    -9587640.383 8  23740453.039 7
  22097496.927    22097499.784   -23642367.645 9  12191086.743 8
  23253377.649    23253382.897    89776565.488 8-117834015.550 8
 90  2 23 10 25 59.0800000  0  4G 3G19G16G13
  21282460.949    21282463.308    26159277.916 8 -55099869.843 8
  24101464.191    24101467.765    -9553244.117 8  23767255.320 7
  22089008.268    22089012.918   -23686975.187 8  12156327.626 9
  23258284.427    23258289.066    89802349.641 7-117813924.026 8
 90  2 23 10 26 14.0800000  0  4G 3G19G16G13
  21282141.881    21282143.998    26157601.937 8 -55101175.802 7
  24108015.987    24108019.358    -9518810.922 7  23794086.366 8
  22080534.307    22080537.804   -23731506.153 9  12121628.204 8
  23263196.937    23263202.747    89828164.681 7-117793808.446 7
 90  2 23 10 26 29.0800000  0  4G 3G19G16G13
  21281830.229    21281834.618    26155967.900 9 -55102449.104 8
  24114573.821    24114579.946    -9484340.940 9  23820946.065 7
  22072075.561    22072079.235   -23775960.202 9  12086988.692 8
  23268115.163    23268120.049    89854010.456 7-117773668.874 8
 90  2 23 10 26 44.0800000  0  4G 3G19G16G13
  21281527.302    21281530.749    26154375.770 8 -55103689.705 7
  24121142.032    24121146.948    -9449834.404 8  23847834.264 7
  22063631.060    22063633.635   -23820336.765 8  12052409.566 8
  23273039.538    23273045.853    89879886.995 8-117753505.358 7
 90  2 23 10 26 59.0800000  0  4G 3G19G16G13
  21281234.886    21281235.778    26152825.792 9 -55104897.477 7
  24127714.204    24127718.431    -9415291.827 7  23874750.539 8
  22055200.198    22055204.530   -23864635.775 9  12017890.867 8
  23277970.228    23277974.303    89905794.541 8-117733317.668 8
 90  2 23 10 27 14.0800000  0  4G 3G19G16G13
  21280946.204    21280949.325    26151318.083 8 -55106072.335 7
  24134294.910    24134300.175    -9380713.453 9  23901694.708 9
  22046784.418    22046789.374   -23908856.982 9  11983432.805 8
  23282906.861    23282911.354    89931733.095 8-117713105.817 7
 90  2 23 10 27 29.0800000  0  4G 3G19G16G13
  21280667.863    21280670.693    26149852.702 8 -55107214.195 8
  24140881.036    24140886.267    -9346099.690 8  23928666.474 7
  22038384.379    22038389.189   -23952999.789 9  11949035.819 8
  23287847.459    23287852.760    89957702.648 7-117692869.821 8
 90  2 23 10 27 44.0800000  0  4G 3G19G16G13
  21280396.847    21280399.136    26148429.855 9 -55108322.889 7
  24147475.198    24147478.993    -9311450.735 8  23955665.651 8
  22029999.795    22030003.511   -23997063.840 8  11914700.217 7
  23292795.778    23292800.568    89983703.525 9-117672609.406 8
 90  2 23 10 27 59.0800000  0  4G 3G19G16G13
  21280133.553    21280137.728    26147049.731 9 -55109398.326 8
  24154075.015    24154080.230    -9276767.166 7  23982691.782 8
  22021629.452    22021634.809   -24041048.866 8  11880426.180 7
  23297749.869    23297754.239    90009735.799 7-117652324.535 8
 90  2 23 10 28 14.0800000  0  4G 3G19G16G13
  21279880.451    21279882.999    26145712.383 8 -55110440.422 7
  24160681.031    24160686.961    -9242049.559 8  24009744.462 7
  22013274.591    22013279.396   -24084954.572 8  11846213.968 7
  23302707.746    23302713.953    90035799.453 8-117632015.232 7
 90  2 23 10 28 29.0800000  0  4G 3G19G16G13
  21279632.642    21279636.765    26144417.854 9 -55111449.146 7
  24167293.521    24167300.626    -9207298.058 8  24036823.538 8
  22004933.993    22004938.462   -24128780.583 8  11812063.863 8
  23307674.581    23307680.518    90061894.745 7-117611681.289 8
 90  2 23 10 28 44.0800000  0  4G 3G19G16G13
  21279393.970    21279398.856    26143166.412 8 -55112424.299 7
  24173913.828    24173919.252    -9172512.877 9  24063928.859 7
  21996609.639    21996614.878   -24172526.501 9  11777976.135 8
  23312645.849    23312652.464    90088021.575 8-117591322.739 7
 90  2 23 10 28 59.0800000  0  4G 3G19G16G13
  21279164.677    21279168.837    26141957.987 8 -55113365.934 7
  24180539.614    24180543.913    -9137694.466 8  24091060.082 8
  21988301.255    21988304.881   -24216192.184 8  11743950.954 7
  23317624.974    23317630.656    90114180.002 7-117570939.552 7
 90  2 23 10 29 14.0800000  0  4G 3G19G16G13
  21278942.800    21278946.901    26140793.041 8 -55114273.688 7
  24187170.277    24187176.867    -9102843.356 7  24118216.767 7
  21980008.325    21980010.940   -24259776.999 8  11709988.779 8
  23322608.290    23322613.362    90140370.157 8-117550531.662 8
 90  2 23 10 29 29.0800000  0  4G 3G19G16G13
  21278728.906    21278731.262    26139671.370 8 -55115147.708 7
  24193809.506    24193816.509    -9067959.948 8  24145398.648 8
  21971729.677    21971732.577   -24303280.861 9  11676089.691 8
  23327597.918    23327602.818    90166592.207 8-117530098.902 8
 90  2 23 10 29 44.0800000  0  4G 3G19G16G13
  21278524.396    21278528.113    26138593.397 8 -55115987.694 7
  24200454.352    24200458.102    -9033044.520 8  24172605.467 8
  21963466.594    21963469.166   -24346703.369 9  11642253.976 8
  23332593.686    23332598.267    90192846.415 7-117509641.097 7
 90  2 23 10 29 59.0800000  0  4G 3G19G16G13
  21278326.614    21278331.045    26137558.879 8 -55116793.823 7
  24207103.691    24207109.036    -8998097.378 8  24199836.994 8
  21955219.332    21955221.874   -24390044.166 9  11608481.935 7
  23337597.353    23337601.189    90219132.595 8-117489158.383 8
 90  2 23 10 30 14.0800000  0  4G 3G19G16G13
  21278140.047    21278141.048    26136568.191 8 -55117565.770 8
  24213758.981    24213765.589    -8963118.853 7  24227092.956 7
  21946987.423    21946990.229   -24433302.841 9  11574773.892 8
  23342604.416    23342608.737    90245450.953 8-117468650.594 7
 90  2 23 10 30 29.0800000  0  4G 3G19G16G13
  21277958.008    21277961.681    26135621.640 8 -55118303.356 7
  24220422.166    24220426.959    -8928109.444 8  24254373.009 7
  21938770.782    21938773.776   -24476479.098 9  11541130.079 7
  23347618.682    23347623.912    90271801.383 7-117448117.805 7
 90  2 23 10 30 44.0800000  0  4G 3G19G16G13
  21277787.071    21277790.087    26134719.262 8 -55119006.496 6
  24227090.009    24227095.494    -8893069.517 7  24281676.832 8
  21930569.964    21930571.602   -24519572.443 9  11507550.837 8
  23352638.400    23352644.702    90298184.279 7-117427559.735 7
 90  2 23 10 30 59.0800000  0  4G 3G19G16G13
  21277623.541    21277626.388    26133861.153 8 -55119675.168 8
  24233763.512    24233769.613    -8857999.229 8  24309004.310 7
  21922385.823    21922389.848   -24562582.772 9  11474036.302 7
  23357665.951    23357670.531    90324599.650 8-117406976.354 6
 90  2 23 10 31 14.0800000  0  4G 3G19G16G13
  21277468.916    21277472.034    26133047.255 8 -55120309.365 7
  24240443.861    24240447.845    -8822899.170 7  24336355.008 8
  21914217.155    21914220.059   -24605509.686 9  11440586.776 8
  23362698.951    23362704.158    90351047.574 8-117386367.596 6
 90  2 23 10 31 29.0800000  0  4G 3G19G16G13
  21277321.874    21277325.792    26132277.807 8 -55120908.955 7
  24247129.459    24247133.915    -8787769.525 8  24363728.743 7
  21906064.482    21906066.534   -24648352.914 9  11407202.458 7
  23367738.521    23367743.046    90377527.953 8-117365733.555 8
 90  2 23 10 31 44.0800000  0  4G 3G19G16G13
  21277184.482    21277187.980    26131552.896 8 -55121473.820 7
  24253818.228    24253824.044    -8752610.765 7  24391125.143 7
  21897928.018    21897930.193   -24691112.081 9  11373883.629 8
  23372783.322    23372789.543    90404040.799 8-117345074.212 7
 90  2 23 10 31 59.0800000  0  4G 3G19G16G13
  21277053.891    21277058.869    26130872.965 8 -55122003.640 7
  24260514.558    24260519.620    -8717423.341 7  24418543.910 7
  21889806.979    21889811.526   -24733786.670 9  11340630.704 8
  23377833.886    23377839.834    90430586.315 7-117324389.412 7
 90  2 23 10 32 14.0800000  0  4G 3G19G16G13
  21276935.037    21276937.266    26130237.823 8 -55122498.542 8
  24267215.650    24267221.276    -8682207.689 7  24445984.648 7
  21881702.101    21881705.219   -24776376.604 8  11307443.765 8
  23382891.851    23382897.699    90457164.887 8-117303678.858 7
 90  2 23 10 32 29.0800000  0  4G 3G19G16G13
  21276821.223    21276825.196    26129647.885 8 -55122958.237 7
  24273922.614    24273929.313    -8646963.882 8  24473447.341 7
  21873613.974    21873617.056   -24818881.398 9  11274323.162 8
  23387957.410    23387962.488    90483776.510 8-117282942.560 7
 90  2 23 10 32 44.0800000  0  4G 3G19G16G13
  21276716.965    21276721.761    26129103.036 8 -55123382.801 7
  24280633.820    24280639.079    -8611692.500 7  24500931.542 8
  21865541.949    21865543.150   -24861300.969 9  11241268.965 8
  23393027.949    23393032.254    90510421.061 8-117262180.580 7
 90  2 23 10 32 59.0800000  0  4G 3G19G16G13
  21276622.384    21276626.469    26128603.646 8 -55123771.953 7
  24287353.016    24287357.154    -8576393.633 8  24528437.144 9
  21857485.494    21857488.893   -24903634.448 9  11208281.834 8
  23398102.751    23398108.853    90537098.724 8-117241392.818 7
 90  2 23 10 33 14.0800000  0  4G 3G19G16G13
  21276537.268    21276539.758    26128149.665 8 -55124125.691 7
  24294074.594    24294077.876    -8541067.895 7  24555963.669 8
  21849445.960    21849450.371   -24945881.898 9  11175361.752 8
  23403187.179    23403191.111    90563809.366 9-117220579.330 8
 90  2 23 10 33 29.0800000  0  4G 3G19G16G13
  21276460.227    21276463.229    26127741.159 8 -55124444.019 8
  24300800.314    24300806.024    -8505715.852 7  24583510.714 7
  21841423.169    21841426.741   -24988042.971 8  11142508.995 8
  23408275.260    23408280.019    90590553.214 8-117199739.991 8
 90  2 23 10 33 44.0800000  0  4G 3G19G16G13
  21276389.395    21276392.618    26127378.571 9 -55124726.558 7
  24307534.208    24307539.426    -8470337.527 7  24611078.216 8
  21833415.612    21833420.840   -25030117.099 9  11109723.972 8
  23413371.260    23413375.829    90617330.590 8-117178874.517 7
 90  2 23 10 33 59.0800000  0  4G 3G19G16G13
  21276330.498    21276331.643    26127061.827 9 -55124973.370 7
  24314271.342    24314275.564    -8434933.372 8  24638665.853 9
  21825425.045    21825429.489   -25072104.304 8  11077006.685 8
  23418473.508    23418478.206    90644141.292 8-117157983.079 7
 90  2 23 10 34 14.0800000  0  4G 3G19G16G13
  21276279.039    21276281.161    26126790.908 8 -55125184.477 8
  24321012.443    24321018.177    -8399503.619 7  24666273.451 8
  21817453.183    21817457.368   -25114004.200 8  11044357.444 8
  23423581.889    23423586.956    90670985.425 8-117137065.596 7
 90  2 23 10 34 29.0800000  0  4G 3G19G16G13
  21276236.858    21276238.986    26126566.313 8 -55125359.468 7
  24327760.818    24327764.965    -8364048.633 8  24693900.676 8
  21809496.253    21809500.766   -25155816.135 8  11011776.730 9
  23428696.249    23428702.344    90697863.338 9-117116121.785 7
 90  2 23 10 34 44.0800000  0  4G 3G19G16G13
  21276200.995    21276204.319    26126388.061 8 -55125498.393 7
  24334510.676    24334516.136    -8328569.171 7  24721547.006 7
  21801556.044    21801561.216   -25197540.002 8  10979264.646 8
  23433817.127    23433822.153    90724775.019 9-117095151.649 8
 90  2 23 10 34 59.0800000  0  4G 3G19G16G13
  21276177.211    21276179.936    26126256.536 8 -55125600.895 6
  24341267.522    24341271.489    -8293065.221 8  24749212.410 7
  21793633.867    21793637.862   -25239175.342 8  10946821.549 8
  23438944.833    23438948.462    90751720.581 8-117074155.122 8
 90  2 23 10 35 14.0800000  0  4G 3G19G16G13
  21276160.931    21276163.494    26126171.665 8 -55125667.033 7
  24348027.173    24348033.546    -8257537.307 7  24776896.482 8
  21785727.485    21785732.892   -25280721.762 8  10914447.722 8
  23444077.852    23444083.883    90778700.232 9-117053132.042 8
 90  2 23 10 35 29.0800000  0  4G 3G19G16G13
  21276153.837    21276157.565    26126133.267 8 -55125696.948 7
  24354793.400    24354798.202    -8221986.238 7  24804598.580 7
  21777838.713    21777842.777   -25322179.427 9  10882143.077 8
  23449219.672    23449223.877    90805713.251 8-117032082.949 8
 90  2 23 10 35 44.0800000  0  4G 3G19G16G13
  21276155.061    21276158.324    26126141.382 8 -55125690.638 7
  24361562.204    24361567.895    -8186412.268 7  24832318.561 8
  21769967.006    21769971.429   -25363547.982 8  10849907.855 8
  23454366.116    23454370.550    90832759.913 9-117011007.636 8
 90  2 23 10 35 59.0800000  0  4G 3G19G16G13
  21276166.309    21276168.653    26126197.143 9 -55125647.184 8
  24368337.228    24368341.864    -8150814.718 7  24860056.896 8
  21762111.308    21762115.216   -25404826.149 8  10817743.056 8
  23459519.992    23459524.467    90859841.327 8-116989905.239 7
 90  2 23 10 36 14.0800000  0  4G 3G19G16G13
  21276184.856    21276188.644    26126299.662 9 -55125567.302 7
  24375115.577    24375119.644    -8115194.925 8  24887812.567 7
  21754273.631    21754276.817   -25446014.723 9  10785648.082 8
  23464680.713    23464682.698    90886956.691 8-116968776.393 7
 90  2 23 10 36 29.0800000  0  4G 3G19G16G13
  21276213.270    21276216.631    26126449.709 9 -55125450.379 7
  24381897.860    24381902.651    -8079552.774 8  24915585.659 8
  21746453.973    21746456.187   -25487112.739 9  10753623.669 8
  23469846.236    23469850.930    90914106.687 8-116947620.567 8
 90  2 23 10 36 44.0800000  0  4G 3G19G16G13
  21276250.589    21276254.726    26126647.234 9 -55125296.473 7
  24388684.882    24388688.934    -8043888.653 8  24943375.868 8
  21738650.922    21738654.639   -25528119.883 9  10721670.055 9
  23475019.104    23475024.574    90941291.084 9-116926437.958 7
